Wetterdaten: Montag, 30.12.2013
Datum Zeit Temp. Aussen +5cm Feuchte Auss Luftdruck Regen Sonnenschein Regendauer UV Solar Windben
30.12.2013 00:00 2,7 C 1,1 C 94 % 1023,6 hPa 0,0 l/m 0 min 0 min 0,0 UV-I 0 W/m 0,0 km/h (0 Bft)
30.12.2013 00:02 2,7 C 1,1 C 94 % 1023,6 hPa 0,0 l/m 0 min 0 min 0,0 UV-I 0 W/m 0,0 km/h (0 Bft)
30.12.2013 00:04 2,7 C 1,1 C 94 % 1023,6 hPa 0,0 l/m 0 min 0 min 0,0 UV-I 0 W/m 5,1 km/h (1 Bft)
30.12.2013 00:06 2,7 C 1,1 C 94 % 1023,7 hPa 0,0 l/m 0 min 0 min 0,0 UV-I 0 W/m 0,0 km/h (0 Bft)
30.12.2013 00:08 2,7 C 1,1 C 94 % 1023,7 hPa 0,0 l/m 0 min 0 min 0,0 UV-I 0 W/m 5,1 km/h (1 Bft)
30.12.2013 00:10 2,7 C 1,1 C 95 % 1023,8 hPa 0,0 l/m 0 min 0 min 0,0 UV-I 0 W/m 0,0 km/h (0 Bft)
30.12.2013 00:12 2,7 C 1,1 C 95 % 1023,8 hPa 0,0 l/m 0 min 0 min 0,0 UV-I 0 W/m 0,0 km/h (0 Bft)
30.12.2013 00:14 2,7 C 1,1 C 95 % 1023,8 hPa 0,0 l/m 0 min 0 min 0,0 UV-I 0 W/m 0,0 km/h (0 Bft)
30.12.2013 00:16 2,6 C 1,1 C 95 % 1023,7 hPa 0,0 l/m 0 min 0 min 0,0 UV-I 0 W/m 2,6 km/h (1 Bft)
30.12.2013 00:18 2,6 C 1,1 C 95 % 1023,8 hPa 0,0 l/m 0 min 0 min 0,0 UV-I 0 W/m 7,7 km/h (2 Bft)
30.12.2013 00:20 2,6 C 1,1 C 95 % 1023,8 hPa 0,0 l/m 0 min 0 min 0,0 UV-I 0 W/m 7,7 km/h (2 Bft)
30.12.2013 00:22 2,6 C 1,1 C 95 % 1023,9 hPa 0,0 l/m 0 min 0 min 0,0 UV-I 0 W/m 7,7 km/h (2 Bft)
30.12.2013 00:24 2,6 C 1,1 C 95 % 1023,9 hPa 0,0 l/m 0 min 0 min 0,0 UV-I 0 W/m 5,1 km/h (1 Bft)
30.12.2013 00:26 2,6 C 1,1 C 95 % 1023,9 hPa 0,0 l/m 0 min 0 min 0,0 UV-I 0 W/m 5,1 km/h (1 Bft)
30.12.2013 00:28 2,6 C 1,1 C 95 % 1023,9 hPa 0,0 l/m 0 min 0 min 0,0 UV-I 0 W/m 0,0 km/h (0 Bft)
30.12.2013 00:30 2,6 C 1,1 C 95 % 1023,9 hPa 0,0 l/m 0 min 0 min 0,0 UV-I 0 W/m 0,0 km/h (0 Bft)
30.12.2013 00:32 2,6 C 0,6 C 95 % 1024,0 hPa 0,0 l/m 0 min 0 min 0,0 UV-I 0 W/m 2,6 km/h (1 Bft)
30.12.2013 00:34 2,5 C 1,1 C 95 % 1023,9 hPa 0,0 l/m 0 min 0 min 0,0 UV-I 0 W/m 2,6 km/h (1 Bft)
30.12.2013 00:36 2,5 C 1,1 C 95 % 1024,0 hPa 0,0 l/m 0 min 0 min 0,0 UV-I 0 W/m 0,0 km/h (0 Bft)
30.12.2013 00:38 2,5 C 0,6 C 95 % 1024,0 hPa 0,0 l/m 0 min 0 min 0,0 UV-I 0 W/m 0,0 km/h (0 Bft)
30.12.2013 00:40 2,5 C 0,6 C 95 % 1024,0 hPa 0,0 l/m 0 min 0 min 0,0 UV-I 0 W/m 0,0 km/h (0 Bft)
30.12.2013 00:42 2,5 C 0,6 C 95 % 1024,1 hPa 0,0 l/m 0 min 0 min 0,0 UV-I 0 W/m 0,0 km/h (0 Bft)
30.12.2013 00:44 2,4 C 0,6 C 95 % 1024,1 hPa 0,0 l/m 0 min 0 min 0,0 UV-I 0 W/m 0,0 km/h (0 Bft)
30.12.2013 00:46 2,4 C 0,6 C 95 % 1024,1 hPa 0,0 l/m 0 min 0 min 0,0 UV-I 0 W/m 0,0 km/h (0 Bft)
30.12.2013 00:48 2,4 C 0,6 C 95 % 1024,1 hPa 0,0 l/m 0 min 0 min 0,0 UV-I 0 W/m 0,0 km/h (0 Bft)
30.12.2013 00:50 2,4 C 0,6 C 95 % 1024,0 hPa 0,0 l/m 0 min 0 min 0,0 UV-I 0 W/m 0,0 km/h (0 Bft)
30.12.2013 00:52 2,4 C 0,6 C 95 % 1024,1 hPa 0,0 l/m 0 min 0 min 0,0 UV-I 0 W/m 0,0 km/h (0 Bft)
30.12.2013 00:54 2,4 C 0,6 C 95 % 1024,0 hPa 0,0 l/m 0 min 0 min 0,0 UV-I 0 W/m 0,0 km/h (0 Bft)
30.12.2013 00:56 2,4 C 0,6 C 95 % 1024,0 hPa 0,0 l/m 0 min 0 min 0,0 UV-I 0 W/m 0,0 km/h (0 Bft)
30.12.2013 00:58 2,4 C 0,6 C 95 % 1024,0 hPa 0,0 l/m 0 min 0 min 0,0 UV-I 0 W/m 0,0 km/h (0 Bft)
30.12.2013 01:00 2,4 C 0,6 C 95 % 1023,9 hPa 0,0 l/m 0 min 0 min 0,0 UV-I 0 W/m 0,0 km/h (0 Bft)
30.12.2013 01:02 2,3 C 0,6 C 95 % 1024,0 hPa 0,0 l/m 0 min 0 min 0,0 UV-I 0 W/m 2,6 km/h (1 Bft)
30.12.2013 01:04 2,3 C 0,6 C 95 % 1024,0 hPa 0,0 l/m 0 min 0 min 0,0 UV-I 0 W/m 0,0 km/h (0 Bft)
30.12.2013 01:06 2,3 C 0,0 C 95 % 1024,0 hPa 0,0 l/m 0 min 0 min 0,0 UV-I 0 W/m 0,0 km/h (0 Bft)
30.12.2013 01:08 2,3 C 0,0 C 95 % 1024,0 hPa 0,0 l/m 0 min 0 min 0,0 UV-I 0 W/m 0,0 km/h (0 Bft)
30.12.2013 01:10 2,3 C 0,0 C 95 % 1024,0 hPa 0,0 l/m 0 min 0 min 0,0 UV-I 0 W/m 0,0 km/h (0 Bft)
30.12.2013 01:12 2,3 C 0,0 C 95 % 1024,0 hPa 0,0 l/m 0 min 0 min 0,0 UV-I 0 W/m 0,0 km/h (0 Bft)
30.12.2013 01:14 2,2 C 0,0 C 95 % 1024,1 hPa 0,0 l/m 0 min 0 min 0,0 UV-I 0 W/m 0,0 km/h (0 Bft)
30.12.2013 01:16 2,2 C 0,0 C 95 % 1024,1 hPa 0,0 l/m 0 min 0 min 0,0 UV-I 0 W/m 0,0 km/h (0 Bft)
30.12.2013 01:18 2,2 C 0,0 C 95 % 1024,1 hPa 0,0 l/m 0 min 0 min 0,0 UV-I 0 W/m 0,0 km/h (0 Bft)
30.12.2013 01:20 2,2 C 0,0 C 95 % 1024,1 hPa 0,0 l/m 0 min 0 min 0,0 UV-I 0 W/m 0,0 km/h (0 Bft)
30.12.2013 01:22 2,1 C 0,0 C 95 % 1024,2 hPa 0,0 l/m 0 min 0 min 0,0 UV-I 0 W/m 0,0 km/h (0 Bft)
30.12.2013 01:24 2,1 C 0,0 C 95 % 1024,2 hPa 0,0 l/m 0 min 0 min 0,0 UV-I 0 W/m 0,0 km/h (0 Bft)
30.12.2013 01:26 2,1 C 0,0 C 95 % 1024,2 hPa 0,0 l/m 0 min 0 min 0,0 UV-I 0 W/m 0,0 km/h (0 Bft)
30.12.2013 01:28 2,1 C 0,0 C 95 % 1024,2 hPa 0,0 l/m 0 min 0 min 0,0 UV-I 0 W/m 0,0 km/h (0 Bft)
30.12.2013 01:30 2,0 C 0,0 C 95 % 1024,2 hPa 0,0 l/m 0 min 0 min 0,0 UV-I 0 W/m 0,0 km/h (0 Bft)
30.12.2013 01:32 2,0 C 0,0 C 95 % 1024,2 hPa 0,0 l/m 0 min 0 min 0,0 UV-I 0 W/m 0,0 km/h (0 Bft)
30.12.2013 01:34 1,9 C 0,0 C 95 % 1024,2 hPa 0,0 l/m 0 min 0 min 0,0 UV-I 0 W/m 0,0 km/h (0 Bft)
30.12.2013 01:36 1,9 C 0,0 C 95 % 1024,2 hPa 0,0 l/m 0 min 0 min 0,0 UV-I 0 W/m 0,0 km/h (0 Bft)
30.12.2013 01:38 1,9 C 0,0 C 95 % 1024,3 hPa 0,0 l/m 0 min 0 min 0,0 UV-I 0 W/m 0,0 km/h (0 Bft)
30.12.2013 01:40 1,9 C 0,0 C 95 % 1024,2 hPa 0,0 l/m 0 min 0 min 0,0 UV-I 0 W/m 0,0 km/h (0 Bft)
30.12.2013 01:42 1,9 C 0,0 C 95 % 1024,3 hPa 0,0 l/m 0 min 0 min 0,0 UV-I 0 W/m 0,0 km/h (0 Bft)
30.12.2013 01:44 1,9 C 0,0 C 95 % 1024,3 hPa 0,0 l/m 0 min 0 min 0,0 UV-I 0 W/m 5,1 km/h (1 Bft)
30.12.2013 01:46 1,8 C 0,0 C 95 % 1024,3 hPa 0,0 l/m 0 min 0 min 0,0 UV-I 0 W/m 0,0 km/h (0 Bft)
30.12.2013 01:48 1,8 C 0,0 C 95 % 1024,3 hPa 0,0 l/m 0 min 0 min 0,0 UV-I 0 W/m 2,6 km/h (1 Bft)
30.12.2013 01:50 1,8 C 0,0 C 95 % 1024,3 hPa 0,0 l/m 0 min 0 min 0,0 UV-I 0 W/m 5,1 km/h (1 Bft)
30.12.2013 01:52 1,8 C 0,0 C 95 % 1024,3 hPa 0,0 l/m 0 min 0 min 0,0 UV-I 0 W/m 0,0 km/h (0 Bft)
30.12.2013 01:54 1,8 C 0,0 C 95 % 1024,3 hPa 0,0 l/m 0 min 0 min 0,0 UV-I 0 W/m 0,0 km/h (0 Bft)
30.12.2013 01:56 1,8 C 0,0 C 95 % 1024,3 hPa 0,0 l/m 0 min 0 min 0,0 UV-I 0 W/m 0,0 km/h (0 Bft)
30.12.2013 01:58 1,7 C 0,0 C 95 % 1024,3 hPa 0,0 l/m 0 min 0 min 0,0 UV-I 0 W/m 0,0 km/h (0 Bft)
30.12.2013 02:00 1,7 C -0,6 C 95 % 1024,3 hPa 0,0 l/m 0 min 0 min 0,0 UV-I 0 W/m 0,0 km/h (0 Bft)
30.12.2013 02:02 1,7 C -0,6 C 95 % 1024,3 hPa 0,0 l/m 0 min 0 min 0,0 UV-I 0 W/m 5,1 km/h (1 Bft)
30.12.2013 02:04 1,7 C -0,6 C 95 % 1024,2 hPa 0,0 l/m 0 min 0 min 0,0 UV-I 0 W/m 0,0 km/h (0 Bft)
30.12.2013 02:06 1,7 C 0,0 C 95 % 1024,2 hPa 0,0 l/m 0 min 0 min 0,0 UV-I 0 W/m 5,1 km/h (1 Bft)
30.12.2013 02:08 1,7 C 0,0 C 95 % 1024,2 hPa 0,0 l/m 0 min 0 min 0,0 UV-I 0 W/m 0,0 km/h (0 Bft)
30.12.2013 02:10 1,7 C 0,0 C 95 % 1024,2 hPa 0,0 l/m 0 min 0 min 0,0 UV-I 0 W/m 0,0 km/h (0 Bft)
30.12.2013 02:12 1,7 C 0,0 C 95 % 1024,3 hPa 0,0 l/m 0 min 0 min 0,0 UV-I 0 W/m 0,0 km/h (0 Bft)
30.12.2013 02:14 1,7 C 0,0 C 95 % 1024,4 hPa 0,0 l/m 0 min 0 min 0,0 UV-I 0 W/m 0,0 km/h (0 Bft)
30.12.2013 02:16 1,6 C 0,0 C 95 % 1024,3 hPa 0,0 l/m 0 min 0 min 0,0 UV-I 0 W/m 0,0 km/h (0 Bft)
30.12.2013 02:18 1,6 C 0,0 C 95 % 1024,4 hPa 0,0 l/m 0 min 0 min 0,0 UV-I 0 W/m 0,0 km/h (0 Bft)
30.12.2013 02:20 1,6 C 0,0 C 95 % 1024,4 hPa 0,0 l/m 0 min 0 min 0,0 UV-I 0 W/m 0,0 km/h (0 Bft)
30.12.2013 02:22 1,6 C 0,0 C 95 % 1024,4 hPa 0,0 l/m 0 min 0 min 0,0 UV-I 0 W/m 2,6 km/h (1 Bft)
30.12.2013 02:24 1,6 C 0,0 C 95 % 1024,4 hPa 0,0 l/m 0 min 0 min 0,0 UV-I 0 W/m 0,0 km/h (0 Bft)
30.12.2013 02:26 1,6 C 0,0 C 95 % 1024,4 hPa 0,0 l/m 0 min 0 min 0,0 UV-I 0 W/m 0,0 km/h (0 Bft)
30.12.2013 02:28 1,6 C 0,0 C 95 % 1024,4 hPa 0,0 l/m 0 min 0 min 0,0 UV-I 0 W/m 2,6 km/h (1 Bft)
30.12.2013 02:30 1,6 C 0,0 C 95 % 1024,4 hPa 0,0 l/m 0 min 0 min 0,0 UV-I 0 W/m 0,0 km/h (0 Bft)
30.12.2013 02:32 1,6 C 0,0 C 95 % 1024,4 hPa 0,0 l/m 0 min 0 min 0,0 UV-I 0 W/m 0,0 km/h (0 Bft)
30.12.2013 02:34 1,6 C 0,0 C 95 % 1024,4 hPa 0,0 l/m 0 min 0 min 0,0 UV-I 0 W/m 0,0 km/h (0 Bft)
30.12.2013 02:36 1,5 C 0,0 C 95 % 1024,3 hPa 0,0 l/m 0 min 0 min 0,0 UV-I 0 W/m 0,0 km/h (0 Bft)
30.12.2013 02:38 1,5 C 0,0 C 95 % 1024,3 hPa 0,0 l/m 0 min 0 min 0,0 UV-I 0 W/m 0,0 km/h (0 Bft)
30.12.2013 02:40 1,5 C 0,0 C 95 % 1024,3 hPa 0,0 l/m 0 min 0 min 0,0 UV-I 0 W/m 2,6 km/h (1 Bft)
30.12.2013 02:42 1,5 C 0,0 C 95 % 1024,3 hPa 0,0 l/m 0 min 0 min 0,0 UV-I 0 W/m 2,6 km/h (1 Bft)
30.12.2013 02:44 1,5 C 0,0 C 95 % 1024,3 hPa 0,0 l/m 0 min 0 min 0,0 UV-I 0 W/m 0,0 km/h (0 Bft)
30.12.2013 02:46 1,5 C 0,0 C 95 % 1024,3 hPa 0,0 l/m 0 min 0 min 0,0 UV-I 0 W/m 0,0 km/h (0 Bft)
30.12.2013 02:48 1,5 C 0,0 C 96 % 1024,3 hPa 0,0 l/m 0 min 0 min 0,0 UV-I 0 W/m 7,7 km/h (2 Bft)
30.12.2013 02:50 1,4 C 0,0 C 96 % 1024,3 hPa 0,0 l/m 0 min 0 min 0,0 UV-I 0 W/m 5,1 km/h (1 Bft)
30.12.2013 02:52 1,5 C 0,0 C 96 % 1024,3 hPa 0,0 l/m 0 min 0 min 0,0 UV-I 0 W/m 2,6 km/h (1 Bft)
30.12.2013 02:54 1,4 C 0,0 C 96 % 1024,2 hPa 0,0 l/m 0 min 0 min 0,0 UV-I 0 W/m 2,6 km/h (1 Bft)
30.12.2013 02:56 1,5 C 0,0 C 96 % 1024,2 hPa 0,0 l/m 0 min 0 min 0,0 UV-I 0 W/m 0,0 km/h (0 Bft)
30.12.2013 02:58 1,5 C 0,0 C 96 % 1024,3 hPa 0,0 l/m 0 min 0 min 0,0 UV-I 0 W/m 0,0 km/h (0 Bft)
30.12.2013 03:00 1,5 C 0,0 C 96 % 1024,3 hPa 0,0 l/m 0 min 0 min 0,0 UV-I 0 W/m 0,0 km/h (0 Bft)
30.12.2013 03:02 1,5 C 0,0 C 96 % 1024,3 hPa 0,0 l/m 0 min 0 min 0,0 UV-I 0 W/m 0,0 km/h (0 Bft)
30.12.2013 03:04 1,5 C 0,0 C 96 % 1024,3 hPa 0,0 l/m 0 min 0 min 0,0 UV-I 0 W/m 7,7 km/h (2 Bft)
30.12.2013 03:06 1,5 C 0,0 C 96 % 1024,3 hPa 0,0 l/m 0 min 0 min 0,0 UV-I 0 W/m 0,0 km/h (0 Bft)
30.12.2013 03:08 1,5 C 0,0 C 96 % 1024,3 hPa 0,0 l/m 0 min 0 min 0,0 UV-I 0 W/m 0,0 km/h (0 Bft)
30.12.2013 03:10 1,5 C 0,0 C 96 % 1024,3 hPa 0,0 l/m 0 min 0 min 0,0 UV-I 0 W/m 7,7 km/h (2 Bft)
30.12.2013 03:12 1,6 C 0,0 C 96 % 1024,4 hPa 0,0 l/m 0 min 0 min 0,0 UV-I 0 W/m 2,6 km/h (1 Bft)
30.12.2013 03:14 1,6 C 0,0 C 96 % 1024,4 hPa 0,0 l/m 0 min 0 min 0,0 UV-I 0 W/m 5,1 km/h (1 Bft)
30.12.2013 03:16 1,6 C 0,0 C 96 % 1024,4 hPa 0,0 l/m 0 min 0 min 0,0 UV-I 0 W/m 0,0 km/h (0 Bft)
30.12.2013 03:18 1,6 C 0,0 C 96 % 1024,4 hPa 0,0 l/m 0 min 0 min 0,0 UV-I 0 W/m 5,1 km/h (1 Bft)
30.12.2013 03:20 1,6 C 0,0 C 96 % 1024,4 hPa 0,0 l/m 0 min 0 min 0,0 UV-I 0 W/m 5,1 km/h (1 Bft)
30.12.2013 03:22 1,6 C 0,0 C 96 % 1024,3 hPa 0,0 l/m 0 min 0 min 0,0 UV-I 0 W/m 2,6 km/h (1 Bft)
30.12.2013 03:24 1,6 C 0,0 C 96 % 1024,3 hPa 0,0 l/m 0 min 0 min 0,0 UV-I 0 W/m 0,0 km/h (0 Bft)
30.12.2013 03:26 1,6 C 0,0 C 96 % 1024,3 hPa 0,0 l/m 0 min 0 min 0,0 UV-I 0 W/m 7,7 km/h (2 Bft)
30.12.2013 03:28 1,6 C 0,0 C 96 % 1024,3 hPa 0,0 l/m 0 min 0 min 0,0 UV-I 0 W/m 5,1 km/h (1 Bft)
30.12.2013 03:30 1,6 C 0,0 C 96 % 1024,2 hPa 0,0 l/m 0 min 0 min 0,0 UV-I 0 W/m 7,7 km/h (2 Bft)
30.12.2013 03:32 1,6 C 0,0 C 96 % 1024,4 hPa 0,0 l/m 0 min 0 min 0,0 UV-I 0 W/m 0,0 km/h (0 Bft)
30.12.2013 03:34 1,6 C 0,0 C 96 % 1024,4 hPa 0,0 l/m 0 min 0 min 0,0 UV-I 0 W/m 7,7 km/h (2 Bft)
30.12.2013 03:36 1,6 C 0,0 C 96 % 1024,3 hPa 0,0 l/m 0 min 0 min 0,0 UV-I 0 W/m 2,6 km/h (1 Bft)
30.12.2013 03:38 1,6 C 0,0 C 96 % 1024,3 hPa 0,0 l/m 0 min 0 min 0,0 UV-I 0 W/m 5,1 km/h (1 Bft)
30.12.2013 03:40 1,6 C 0,0 C 96 % 1024,2 hPa 0,0 l/m 0 min 0 min 0,0 UV-I 0 W/m 0,0 km/h (0 Bft)
30.12.2013 03:42 1,6 C 0,0 C 96 % 1024,3 hPa 0,0 l/m 0 min 0 min 0,0 UV-I 0 W/m 2,6 km/h (1 Bft)
30.12.2013 03:44 1,6 C 0,0 C 96 % 1024,3 hPa 0,0 l/m 0 min 0 min 0,0 UV-I 0 W/m 0,0 km/h (0 Bft)
30.12.2013 03:46 1,6 C 0,0 C 96 % 1024,2 hPa 0,0 l/m 0 min 0 min 0,0 UV-I 0 W/m 0,0 km/h (0 Bft)
30.12.2013 03:48 1,6 C 0,0 C 96 % 1024,2 hPa 0,0 l/m 0 min 0 min 0,0 UV-I 0 W/m 7,7 km/h (2 Bft)
30.12.2013 03:50 1,6 C 0,0 C 96 % 1024,2 hPa 0,0 l/m 0 min 0 min 0,0 UV-I 0 W/m 7,7 km/h (2 Bft)
30.12.2013 03:52 1,6 C 0,0 C 96 % 1024,2 hPa 0,0 l/m 0 min 0 min 0,0 UV-I 0 W/m 0,0 km/h (0 Bft)
30.12.2013 03:54 1,6 C 0,0 C 96 % 1024,2 hPa 0,0 l/m 0 min 0 min 0,0 UV-I 0 W/m 5,1 km/h (1 Bft)
30.12.2013 03:56 1,6 C 0,0 C 96 % 1024,2 hPa 0,0 l/m 0 min 0 min 0,0 UV-I 0 W/m 0,0 km/h (0 Bft)
30.12.2013 03:58 1,6 C 0,0 C 96 % 1024,2 hPa 0,0 l/m 0 min 0 min 0,0 UV-I 0 W/m 2,6 km/h (1 Bft)
30.12.2013 04:00 1,6 C 0,0 C 96 % 1024,3 hPa 0,0 l/m 0 min 0 min 0,0 UV-I 0 W/m 7,7 km/h (2 Bft)
30.12.2013 04:02 1,6 C 0,0 C 96 % 1024,2 hPa 0,0 l/m 0 min 0 min 0,0 UV-I 0 W/m 0,0 km/h (0 Bft)
30.12.2013 04:04 1,5 C 0,0 C 96 % 1024,2 hPa 0,0 l/m 0 min 0 min 0,0 UV-I 0 W/m 5,1 km/h (1 Bft)
30.12.2013 04:06 1,5 C 0,0 C 96 % 1024,2 hPa 0,0 l/m 0 min 0 min 0,0 UV-I 0 W/m 10,3 km/h (2 Bft)
30.12.2013 04:08 1,5 C 0,0 C 96 % 1024,1 hPa 0,0 l/m 0 min 0 min 0,0 UV-I 0 W/m 7,7 km/h (2 Bft)
30.12.2013 04:10 1,5 C 0,0 C 96 % 1024,1 hPa 0,0 l/m 0 min 0 min 0,0 UV-I 0 W/m 7,7 km/h (2 Bft)
30.12.2013 04:12 1,5 C 0,0 C 96 % 1024,1 hPa 0,0 l/m 0 min 0 min 0,0 UV-I 0 W/m 0,0 km/h (0 Bft)
30.12.2013 04:14 1,5 C 0,0 C 96 % 1024,1 hPa 0,0 l/m 0 min 0 min 0,0 UV-I 0 W/m 10,3 km/h (2 Bft)
30.12.2013 04:16 1,6 C 0,0 C 96 % 1024,1 hPa 0,0 l/m 0 min 0 min 0,0 UV-I 0 W/m 5,1 km/h (1 Bft)
30.12.2013 04:18 1,5 C 0,0 C 96 % 1024,2 hPa 0,0 l/m 0 min 0 min 0,0 UV-I 0 W/m 2,6 km/h (1 Bft)
30.12.2013 04:20 1,5 C 0,0 C 96 % 1024,2 hPa 0,0 l/m 0 min 0 min 0,0 UV-I 0 W/m 0,0 km/h (0 Bft)
30.12.2013 04:22 1,6 C 0,0 C 96 % 1024,2 hPa 0,0 l/m 0 min 0 min 0,0 UV-I 0 W/m 2,6 km/h (1 Bft)
30.12.2013 04:24 1,6 C 0,0 C 96 % 1024,2 hPa 0,0 l/m 0 min 0 min 0,0 UV-I 0 W/m 0,0 km/h (0 Bft)
30.12.2013 04:26 1,5 C 0,0 C 96 % 1024,2 hPa 0,0 l/m 0 min 0 min 0,0 UV-I 0 W/m 0,0 km/h (0 Bft)
30.12.2013 04:28 1,5 C 0,0 C 96 % 1024,3 hPa 0,0 l/m 0 min 0 min 0,0 UV-I 0 W/m 5,1 km/h (1 Bft)
30.12.2013 04:30 1,5 C 0,0 C 96 % 1024,3 hPa 0,0 l/m 0 min 0 min 0,0 UV-I 0 W/m 2,6 km/h (1 Bft)
30.12.2013 04:32 1,5 C 0,0 C 96 % 1024,3 hPa 0,0 l/m 0 min 0 min 0,0 UV-I 0 W/m 0,0 km/h (0 Bft)
30.12.2013 04:34 1,5 C 0,0 C 96 % 1024,3 hPa 0,0 l/m 0 min 0 min 0,0 UV-I 0 W/m 0,0 km/h (0 Bft)
30.12.2013 04:36 1,5 C 0,0 C 96 % 1024,2 hPa 0,0 l/m 0 min 0 min 0,0 UV-I 0 W/m 0,0 km/h (0 Bft)
30.12.2013 04:38 1,5 C 0,0 C 96 % 1024,2 hPa 0,0 l/m 0 min 0 min 0,0 UV-I 0 W/m 0,0 km/h (0 Bft)
30.12.2013 04:40 1,5 C 0,0 C 96 % 1024,2 hPa 0,0 l/m 0 min 0 min 0,0 UV-I 0 W/m 2,6 km/h (1 Bft)
30.12.2013 04:42 1,5 C 0,0 C 96 % 1024,2 hPa 0,0 l/m 0 min 0 min 0,0 UV-I 0 W/m 0,0 km/h (0 Bft)
30.12.2013 04:44 1,5 C 0,0 C 96 % 1024,2 hPa 0,0 l/m 0 min 0 min 0,0 UV-I 0 W/m 7,7 km/h (2 Bft)
30.12.2013 04:46 1,4 C 0,0 C 96 % 1024,2 hPa 0,0 l/m 0 min 0 min 0,0 UV-I 0 W/m 0,0 km/h (0 Bft)
30.12.2013 04:48 1,4 C 0,0 C 96 % 1024,2 hPa 0,0 l/m 0 min 0 min 0,0 UV-I 0 W/m 5,1 km/h (1 Bft)
30.12.2013 04:50 1,4 C 0,0 C 96 % 1024,1 hPa 0,0 l/m 0 min 0 min 0,0 UV-I 0 W/m 7,7 km/h (2 Bft)
30.12.2013 04:52 1,4 C 0,0 C 96 % 1024,1 hPa 0,0 l/m 0 min 0 min 0,0 UV-I 0 W/m 7,7 km/h (2 Bft)
30.12.2013 04:54 1,4 C 0,0 C 96 % 1024,1 hPa 0,0 l/m 0 min 0 min 0,0 UV-I 0 W/m 7,7 km/h (2 Bft)
30.12.2013 04:56 1,4 C 0,0 C 96 % 1024,1 hPa 0,0 l/m 0 min 0 min 0,0 UV-I 0 W/m 2,6 km/h (1 Bft)
30.12.2013 04:58 1,4 C 0,0 C 96 % 1024,1 hPa 0,0 l/m 0 min 0 min 0,0 UV-I 0 W/m 5,1 km/h (1 Bft)
30.12.2013 05:00 1,4 C 0,0 C 96 % 1024,0 hPa 0,0 l/m 0 min 0 min 0,0 UV-I 0 W/m 7,7 km/h (2 Bft)
30.12.2013 05:02 1,3 C 0,0 C 96 % 1024,1 hPa 0,0 l/m 0 min 0 min 0,0 UV-I 0 W/m 7,7 km/h (2 Bft)
30.12.2013 05:04 1,3 C 0,0 C 96 % 1024,0 hPa 0,0 l/m 0 min 0 min 0,0 UV-I 0 W/m 12,9 km/h (3 Bft)
30.12.2013 05:06 1,3 C 0,0 C 96 % 1024,1 hPa 0,0 l/m 0 min 0 min 0,0 UV-I 0 W/m 7,7 km/h (2 Bft)
30.12.2013 05:08 1,3 C 0,0 C 96 % 1024,0 hPa 0,0 l/m 0 min 0 min 0,0 UV-I 0 W/m 10,3 km/h (2 Bft)
30.12.2013 05:10 1,3 C 0,0 C 96 % 1024,0 hPa 0,0 l/m 0 min 0 min 0,0 UV-I 0 W/m 10,3 km/h (2 Bft)
30.12.2013 05:12 1,3 C 0,0 C 96 % 1024,0 hPa 0,0 l/m 0 min 0 min 0,0 UV-I 0 W/m 7,7 km/h (2 Bft)
30.12.2013 05:14 1,3 C 0,0 C 96 % 1024,0 hPa 0,0 l/m 0 min 0 min 0,0 UV-I 0 W/m 7,7 km/h (2 Bft)
30.12.2013 05:16 1,2 C 0,0 C 96 % 1024,0 hPa 0,0 l/m 0 min 0 min 0,0 UV-I 0 W/m 12,9 km/h (3 Bft)
30.12.2013 05:18 1,3 C 0,0 C 96 % 1024,0 hPa 0,0 l/m 0 min 0 min 0,0 UV-I 0 W/m 10,3 km/h (2 Bft)
30.12.2013 05:20 1,3 C 0,0 C 96 % 1023,9 hPa 0,0 l/m 0 min 0 min 0,0 UV-I 0 W/m 7,7 km/h (2 Bft)
30.12.2013 05:22 1,2 C 0,0 C 96 % 1023,9 hPa 0,0 l/m 0 min 0 min 0,0 UV-I 0 W/m 10,3 km/h (2 Bft)
30.12.2013 05:24 1,2 C 0,0 C 96 % 1024,0 hPa 0,0 l/m 0 min 0 min 0,0 UV-I 0 W/m 15,4 km/h (3 Bft)
30.12.2013 05:26 1,2 C 0,0 C 96 % 1023,9 hPa 0,0 l/m 0 min 0 min 0,0 UV-I 0 W/m 5,1 km/h (1 Bft)
30.12.2013 05:28 1,2 C 0,0 C 96 % 1023,9 hPa 0,0 l/m 0 min 0 min 0,0 UV-I 0 W/m 7,7 km/h (2 Bft)
30.12.2013 05:30 1,2 C 0,0 C 96 % 1023,9 hPa 0,0 l/m 0 min 0 min 0,0 UV-I 0 W/m 10,3 km/h (2 Bft)
30.12.2013 05:32 1,2 C 0,0 C 96 % 1023,9 hPa 0,0 l/m 0 min 0 min 0,0 UV-I 0 W/m 10,3 km/h (2 Bft)
30.12.2013 05:34 1,2 C 0,0 C 96 % 1023,8 hPa 0,0 l/m 0 min 0 min 0,0 UV-I 0 W/m 10,3 km/h (2 Bft)
30.12.2013 05:36 1,2 C 0,0 C 96 % 1023,7 hPa 0,0 l/m 0 min 0 min 0,0 UV-I 0 W/m 10,3 km/h (2 Bft)
30.12.2013 05:38 1,2 C 0,0 C 96 % 1023,7 hPa 0,0 l/m 0 min 0 min 0,0 UV-I 0 W/m 12,9 km/h (3 Bft)
30.12.2013 05:40 1,2 C 0,0 C 96 % 1023,7 hPa 0,0 l/m 0 min 0 min 0,0 UV-I 0 W/m 10,3 km/h (2 Bft)
30.12.2013 05:42 1,2 C 0,0 C 96 % 1023,7 hPa 0,0 l/m 0 min 0 min 0,0 UV-I 0 W/m 12,9 km/h (3 Bft)
30.12.2013 05:44 1,2 C 0,0 C 96 % 1023,6 hPa 0,0 l/m 0 min 0 min 0,0 UV-I 0 W/m 12,9 km/h (3 Bft)
30.12.2013 05:46 1,2 C 0,0 C 96 % 1023,6 hPa 0,0 l/m 0 min 0 min 0,0 UV-I 0 W/m 7,7 km/h (2 Bft)
30.12.2013 05:48 1,2 C 0,0 C 96 % 1023,6 hPa 0,0 l/m 0 min 0 min 0,0 UV-I 0 W/m 10,3 km/h (2 Bft)
30.12.2013 05:50 1,2 C 0,0 C 96 % 1023,6 hPa 0,2 l/m 0 min 0 min 0,0 UV-I 0 W/m 7,7 km/h (2 Bft)
30.12.2013 05:52 1,2 C 0,0 C 96 % 1023,7 hPa 0,0 l/m 0 min 0 min 0,0 UV-I 0 W/m 10,3 km/h (2 Bft)
30.12.2013 05:54 1,2 C 0,0 C 97 % 1023,6 hPa 0,0 l/m 0 min 0 min 0,0 UV-I 0 W/m 2,6 km/h (1 Bft)
30.12.2013 05:56 1,2 C -0,6 C 96 % 1023,6 hPa 0,0 l/m 0 min 0 min 0,0 UV-I 0 W/m 7,7 km/h (2 Bft)
30.12.2013 05:58 1,2 C -0,6 C 96 % 1023,5 hPa 0,0 l/m 0 min 0 min 0,0 UV-I 0 W/m 7,7 km/h (2 Bft)
30.12.2013 06:00 1,1 C -0,6 C 96 % 1023,6 hPa 0,0 l/m 0 min 0 min 0,0 UV-I 0 W/m 7,7 km/h (2 Bft)
30.12.2013 06:02 1,1 C -0,6 C 96 % 1023,6 hPa 0,0 l/m 0 min 0 min 0,0 UV-I 0 W/m 5,1 km/h (1 Bft)
30.12.2013 06:04 1,1 C -0,6 C 96 % 1023,5 hPa 0,0 l/m 0 min 0 min 0,0 UV-I 0 W/m 10,3 km/h (2 Bft)
30.12.2013 06:06 1,1 C -0,6 C 96 % 1023,5 hPa 0,0 l/m 0 min 0 min 0,0 UV-I 0 W/m 10,3 km/h (2 Bft)
30.12.2013 06:08 1,1 C -0,6 C 96 % 1023,5 hPa 0,0 l/m 0 min 0 min 0,0 UV-I 0 W/m 0,0 km/h (0 Bft)
30.12.2013 06:10 1,1 C -0,6 C 96 % 1023,5 hPa 0,0 l/m 0 min 0 min 0,0 UV-I 0 W/m 2,6 km/h (1 Bft)
30.12.2013 06:12 1,1 C -0,6 C 96 % 1023,5 hPa 0,0 l/m 0 min 0 min 0,0 UV-I 0 W/m 7,7 km/h (2 Bft)
30.12.2013 06:14 1,0 C -0,6 C 96 % 1023,5 hPa 0,0 l/m 0 min 0 min 0,0 UV-I 0 W/m 7,7 km/h (2 Bft)
30.12.2013 06:16 1,0 C -0,6 C 96 % 1023,5 hPa 0,0 l/m 0 min 0 min 0,0 UV-I 0 W/m 15,4 km/h (3 Bft)
30.12.2013 06:18 1,0 C -0,6 C 96 % 1023,6 hPa 0,0 l/m 0 min 0 min 0,0 UV-I 0 W/m 10,3 km/h (2 Bft)
30.12.2013 06:20 1,0 C -0,6 C 96 % 1023,6 hPa 0,0 l/m 0 min 0 min 0,0 UV-I 0 W/m 12,9 km/h (3 Bft)
30.12.2013 06:22 0,9 C -0,6 C 96 % 1023,5 hPa 0,0 l/m 0 min 0 min 0,0 UV-I 0 W/m 7,7 km/h (2 Bft)
30.12.2013 06:24 0,9 C -0,6 C 96 % 1023,5 hPa 0,0 l/m 0 min 0 min 0,0 UV-I 0 W/m 10,3 km/h (2 Bft)
30.12.2013 06:26 0,9 C -0,6 C 96 % 1023,5 hPa 0,0 l/m 0 min 0 min 0,0 UV-I 0 W/m 10,3 km/h (2 Bft)
30.12.2013 06:28 0,9 C -0,6 C 96 % 1023,5 hPa 0,0 l/m 0 min 0 min 0,0 UV-I 0 W/m 7,7 km/h (2 Bft)
30.12.2013 06:30 0,9 C -0,6 C 96 % 1023,5 hPa 0,0 l/m 0 min 0 min 0,0 UV-I 0 W/m 15,4 km/h (3 Bft)
30.12.2013 06:32 0,9 C -0,6 C 96 % 1023,5 hPa 0,0 l/m 0 min 0 min 0,0 UV-I 0 W/m 10,3 km/h (2 Bft)
30.12.2013 06:34 0,9 C -0,6 C 96 % 1023,5 hPa 0,0 l/m 0 min 0 min 0,0 UV-I 0 W/m 15,4 km/h (3 Bft)
30.12.2013 06:36 0,8 C -0,6 C 96 % 1023,5 hPa 0,0 l/m 0 min 0 min 0,0 UV-I 0 W/m 10,3 km/h (2 Bft)
30.12.2013 06:38 0,8 C -0,6 C 96 % 1023,4 hPa 0,0 l/m 0 min 0 min 0,0 UV-I 0 W/m 10,3 km/h (2 Bft)
30.12.2013 06:40 0,8 C -0,6 C 96 % 1023,4 hPa 0,0 l/m 0 min 0 min 0,0 UV-I 0 W/m 10,3 km/h (2 Bft)
30.12.2013 06:42 0,8 C -0,6 C 96 % 1023,4 hPa 0,0 l/m 0 min 0 min 0,0 UV-I 0 W/m 10,3 km/h (2 Bft)
30.12.2013 06:44 0,8 C -0,6 C 96 % 1023,4 hPa 0,0 l/m 0 min 0 min 0,0 UV-I 0 W/m 15,4 km/h (3 Bft)
30.12.2013 06:46 0,8 C -0,6 C 96 % 1023,4 hPa 0,0 l/m 0 min 0 min 0,0 UV-I 0 W/m 10,3 km/h (2 Bft)
30.12.2013 06:48 0,8 C -0,6 C 96 % 1023,4 hPa 0,0 l/m 0 min 0 min 0,0 UV-I 0 W/m 5,1 km/h (1 Bft)
30.12.2013 06:50 0,7 C -0,6 C 96 % 1023,3 hPa 0,0 l/m 0 min 0 min 0,0 UV-I 0 W/m 10,3 km/h (2 Bft)
30.12.2013 06:52 0,7 C -0,6 C 96 % 1023,3 hPa 0,0 l/m 0 min 0 min 0,0 UV-I 0 W/m 10,3 km/h (2 Bft)
30.12.2013 06:54 0,7 C -0,6 C 96 % 1023,3 hPa 0,0 l/m 0 min 0 min 0,0 UV-I 0 W/m 12,9 km/h (3 Bft)
30.12.2013 06:56 0,7 C -0,6 C 96 % 1023,3 hPa 0,0 l/m 0 min 0 min 0,0 UV-I 0 W/m 12,9 km/h (3 Bft)
30.12.2013 06:58 0,7 C -0,6 C 96 % 1023,3 hPa 0,0 l/m 0 min 0 min 0,0 UV-I 0 W/m 12,9 km/h (3 Bft)
30.12.2013 07:00 0,7 C -0,6 C 96 % 1023,1 hPa 0,0 l/m 0 min 0 min 0,0 UV-I 0 W/m 12,9 km/h (3 Bft)
30.12.2013 07:02 0,7 C -0,6 C 96 % 1023,2 hPa 0,0 l/m 0 min 0 min 0,0 UV-I 0 W/m 12,9 km/h (3 Bft)
30.12.2013 07:04 0,7 C -0,6 C 96 % 1023,1 hPa 0,0 l/m 0 min 0 min 0,0 UV-I 0 W/m 10,3 km/h (2 Bft)
30.12.2013 07:06 0,7 C -0,6 C 96 % 1023,1 hPa 0,0 l/m 0 min 0 min 0,0 UV-I 0 W/m 10,3 km/h (2 Bft)
30.12.2013 07:08 0,7 C -0,6 C 96 % 1023,2 hPa 0,0 l/m 0 min 0 min 0,0 UV-I 0 W/m 15,4 km/h (3 Bft)
30.12.2013 07:10 0,7 C -0,6 C 96 % 1023,2 hPa 0,0 l/m 0 min 0 min 0,0 UV-I 0 W/m 15,4 km/h (3 Bft)
30.12.2013 07:12 0,7 C -0,6 C 96 % 1023,1 hPa 0,0 l/m 0 min 0 min 0,0 UV-I 0 W/m 12,9 km/h (3 Bft)
30.12.2013 07:14 0,7 C -0,6 C 96 % 1023,2 hPa 0,0 l/m 0 min 0 min 0,0 UV-I 0 W/m 12,9 km/h (3 Bft)
30.12.2013 07:16 0,7 C -0,6 C 96 % 1023,2 hPa 0,0 l/m 0 min 0 min 0,0 UV-I 0 W/m 18,0 km/h (3 Bft)
30.12.2013 07:18 0,7 C -0,6 C 96 % 1023,0 hPa 0,0 l/m 0 min 0 min 0,0 UV-I 0 W/m 10,3 km/h (2 Bft)
30.12.2013 07:20 0,7 C -0,6 C 96 % 1023,0 hPa 0,0 l/m 0 min 0 min 0,0 UV-I 0 W/m 12,9 km/h (3 Bft)
30.12.2013 07:22 0,7 C -0,6 C 96 % 1023,0 hPa 0,0 l/m 0 min 0 min 0,0 UV-I 0 W/m 12,9 km/h (3 Bft)
30.12.2013 07:24 0,7 C -0,6 C 96 % 1023,1 hPa 0,0 l/m 0 min 0 min 0,0 UV-I 0 W/m 12,9 km/h (3 Bft)
30.12.2013 07:26 0,7 C -0,6 C 96 % 1023,0 hPa 0,0 l/m 0 min 0 min 0,0 UV-I 0 W/m 7,7 km/h (2 Bft)
30.12.2013 07:28 0,7 C -0,6 C 96 % 1023,1 hPa 0,0 l/m 0 min 0 min 0,0 UV-I 0 W/m 12,9 km/h (3 Bft)
30.12.2013 07:30 0,7 C -0,6 C 96 % 1023,1 hPa 0,0 l/m 0 min 0 min 0,0 UV-I 0 W/m 10,3 km/h (2 Bft)
30.12.2013 07:32 0,7 C -0,6 C 96 % 1023,1 hPa 0,0 l/m 0 min 0 min 0,0 UV-I 0 W/m 5,1 km/h (1 Bft)
30.12.2013 07:34 0,7 C -0,6 C 96 % 1023,0 hPa 0,0 l/m 0 min 0 min 0,0 UV-I 0 W/m 2,6 km/h (1 Bft)
30.12.2013 07:36 0,7 C -0,6 C 96 % 1023,0 hPa 0,0 l/m 0 min 0 min 0,0 UV-I 0 W/m 0,0 km/h (0 Bft)
30.12.2013 07:38 0,6 C -0,6 C 96 % 1023,1 hPa 0,0 l/m 0 min 0 min 0,0 UV-I 0 W/m 12,9 km/h (3 Bft)
30.12.2013 07:40 0,6 C -0,6 C 96 % 1023,0 hPa 0,0 l/m 0 min 0 min 0,0 UV-I 0 W/m 0,0 km/h (0 Bft)
30.12.2013 07:42 0,6 C -0,6 C 96 % 1023,1 hPa 0,0 l/m 0 min 0 min 0,0 UV-I 0 W/m 7,7 km/h (2 Bft)
30.12.2013 07:44 0,6 C -0,6 C 96 % 1023,1 hPa 0,0 l/m 0 min 0 min 0,0 UV-I 0 W/m 10,3 km/h (2 Bft)
30.12.2013 07:46 0,6 C -0,6 C 96 % 1023,2 hPa 0,0 l/m 0 min 0 min 0,0 UV-I 0 W/m 12,9 km/h (3 Bft)
30.12.2013 07:48 0,6 C -0,6 C 96 % 1023,2 hPa 0,0 l/m 0 min 0 min 0,0 UV-I 0 W/m 10,3 km/h (2 Bft)
30.12.2013 07:50 0,6 C -0,6 C 96 % 1023,2 hPa 0,0 l/m 0 min 0 min 0,0 UV-I 0 W/m 7,7 km/h (2 Bft)
30.12.2013 07:52 0,6 C -0,6 C 96 % 1023,1 hPa 0,0 l/m 0 min 0 min 0,0 UV-I 0 W/m 10,3 km/h (2 Bft)
30.12.2013 07:54 0,6 C -0,6 C 96 % 1023,1 hPa 0,0 l/m 0 min 0 min 0,0 UV-I 0 W/m 12,9 km/h (3 Bft)
30.12.2013 07:56 0,6 C -0,6 C 96 % 1023,2 hPa 0,0 l/m 0 min 0 min 0,0 UV-I 0 W/m 2,6 km/h (1 Bft)
30.12.2013 07:58 0,6 C -0,6 C 96 % 1023,2 hPa 0,0 l/m 0 min 0 min 0,0 UV-I 0 W/m 7,7 km/h (2 Bft)
30.12.2013 08:00 0,6 C -0,6 C 96 % 1023,0 hPa 0,0 l/m 0 min 0 min 0,0 UV-I 0 W/m 7,7 km/h (2 Bft)
30.12.2013 08:02 0,5 C -0,6 C 96 % 1023,0 hPa 0,0 l/m 0 min 0 min 0,0 UV-I 0 W/m 5,1 km/h (1 Bft)
30.12.2013 08:04 0,6 C -0,6 C 96 % 1023,0 hPa 0,0 l/m 0 min 0 min 0,0 UV-I 0 W/m 0,0 km/h (0 Bft)
30.12.2013 08:06 0,6 C -0,6 C 96 % 1023,0 hPa 0,0 l/m 0 min 0 min 0,0 UV-I 0 W/m 7,7 km/h (2 Bft)
30.12.2013 08:08 0,6 C -0,6 C 96 % 1023,1 hPa 0,0 l/m 0 min 0 min 0,0 UV-I 0 W/m 10,3 km/h (2 Bft)
30.12.2013 08:10 0,6 C -0,6 C 96 % 1023,0 hPa 0,0 l/m 0 min 0 min 0,0 UV-I 0 W/m 5,1 km/h (1 Bft)
30.12.2013 08:12 0,5 C -0,6 C 96 % 1023,0 hPa 0,0 l/m 0 min 0 min 0,0 UV-I 0 W/m 5,1 km/h (1 Bft)
30.12.2013 08:14 0,6 C -0,6 C 96 % 1023,0 hPa 0,0 l/m 0 min 0 min 0,0 UV-I 0 W/m 7,7 km/h (2 Bft)
30.12.2013 08:16 0,6 C -0,6 C 96 % 1023,0 hPa 0,0 l/m 0 min 0 min 0,0 UV-I 0 W/m 5,1 km/h (1 Bft)
30.12.2013 08:18 0,6 C -0,6 C 96 % 1023,1 hPa 0,0 l/m 0 min 0 min 0,0 UV-I 0 W/m 7,7 km/h (2 Bft)
30.12.2013 08:20 0,6 C -0,6 C 96 % 1023,1 hPa 0,0 l/m 0 min 0 min 0,0 UV-I 0 W/m 5,1 km/h (1 Bft)
30.12.2013 08:22 0,6 C -0,6 C 96 % 1023,1 hPa 0,0 l/m 0 min 0 min 0,0 UV-I 0 W/m 5,1 km/h (1 Bft)
30.12.2013 08:24 0,6 C -0,6 C 96 % 1023,1 hPa 0,0 l/m 0 min 0 min 0,0 UV-I 0 W/m 0,0 km/h (0 Bft)
30.12.2013 08:26 0,6 C -0,6 C 96 % 1023,1 hPa 0,0 l/m 0 min 0 min 0,0 UV-I 5 W/m 10,3 km/h (2 Bft)
30.12.2013 08:28 0,7 C -0,6 C 96 % 1023,1 hPa 0,0 l/m 0 min 0 min 0,0 UV-I 5 W/m 5,1 km/h (1 Bft)
30.12.2013 08:30 0,7 C -0,6 C 96 % 1023,1 hPa 0,0 l/m 0 min 0 min 0,0 UV-I 5 W/m 10,3 km/h (2 Bft)
30.12.2013 08:32 0,7 C -0,6 C 96 % 1023,2 hPa 0,0 l/m 0 min 0 min 0,0 UV-I 5 W/m 2,6 km/h (1 Bft)
30.12.2013 08:34 0,7 C -0,6 C 96 % 1023,2 hPa 0,0 l/m 0 min 0 min 0,0 UV-I 5 W/m 10,3 km/h (2 Bft)
30.12.2013 08:36 0,7 C -0,6 C 96 % 1023,2 hPa 0,0 l/m 0 min 0 min 0,0 UV-I 5 W/m 2,6 km/h (1 Bft)
30.12.2013 08:38 0,7 C -0,6 C 96 % 1023,2 hPa 0,0 l/m 0 min 0 min 0,0 UV-I 5 W/m 10,3 km/h (2 Bft)
30.12.2013 08:40 0,7 C -0,6 C 96 % 1023,2 hPa 0,0 l/m 0 min 0 min 0,0 UV-I 7 W/m 7,7 km/h (2 Bft)
30.12.2013 08:42 0,7 C -0,6 C 96 % 1023,3 hPa 0,0 l/m 0 min 0 min 0,0 UV-I 7 W/m 2,6 km/h (1 Bft)
30.12.2013 08:44 0,7 C -0,6 C 96 % 1023,3 hPa 0,0 l/m 0 min 0 min 0,0 UV-I 7 W/m 5,1 km/h (1 Bft)
30.12.2013 08:46 0,7 C -0,6 C 96 % 1023,2 hPa 0,0 l/m 0 min 0 min 0,0 UV-I 9 W/m 18,0 km/h (3 Bft)
30.12.2013 08:48 0,7 C -0,6 C 96 % 1023,2 hPa 0,0 l/m 0 min 0 min 0,0 UV-I 11 W/m 7,7 km/h (2 Bft)
30.12.2013 08:50 0,8 C -0,6 C 96 % 1023,2 hPa 0,0 l/m 0 min 0 min 0,0 UV-I 11 W/m 0,0 km/h (0 Bft)
30.12.2013 08:52 0,8 C -0,6 C 96 % 1023,2 hPa 0,0 l/m 0 min 0 min 0,0 UV-I 11 W/m 7,7 km/h (2 Bft)
30.12.2013 08:54 0,8 C -0,6 C 96 % 1023,2 hPa 0,0 l/m 0 min 0 min 0,0 UV-I 12 W/m 2,6 km/h (1 Bft)
30.12.2013 08:56 0,8 C -0,6 C 96 % 1023,3 hPa 0,0 l/m 0 min 0 min 0,0 UV-I 12 W/m 5,1 km/h (1 Bft)
30.12.2013 08:58 0,8 C -0,6 C 96 % 1023,3 hPa 0,0 l/m 0 min 0 min 0,0 UV-I 14 W/m 5,1 km/h (1 Bft)
30.12.2013 09:00 0,8 C -0,6 C 96 % 1023,3 hPa 0,0 l/m 0 min 0 min 0,0 UV-I 14 W/m 2,6 km/h (1 Bft)
30.12.2013 09:02 0,8 C 0,0 C 96 % 1023,2 hPa 0,0 l/m 0 min 0 min 0,0 UV-I 16 W/m 5,1 km/h (1 Bft)
30.12.2013 09:04 0,8 C 0,0 C 96 % 1023,2 hPa 0,0 l/m 0 min 0 min 0,0 UV-I 16 W/m 10,3 km/h (2 Bft)
30.12.2013 09:06 0,9 C 0,0 C 96 % 1023,1 hPa 0,0 l/m 0 min 0 min 0,0 UV-I 16 W/m 10,3 km/h (2 Bft)
30.12.2013 09:08 0,9 C 0,0 C 96 % 1023,1 hPa 0,0 l/m 0 min 0 min 0,0 UV-I 16 W/m 10,3 km/h (2 Bft)
30.12.2013 09:10 0,9 C 0,0 C 96 % 1023,1 hPa 0,0 l/m 0 min 0 min 0,0 UV-I 18 W/m 7,7 km/h (2 Bft)
30.12.2013 09:12 0,9 C 0,0 C 96 % 1023,1 hPa 0,0 l/m 0 min 0 min 0,0 UV-I 18 W/m 12,9 km/h (3 Bft)
30.12.2013 09:14 0,9 C 0,0 C 96 % 1023,1 hPa 0,0 l/m 0 min 0 min 0,0 UV-I 19 W/m 10,3 km/h (2 Bft)
30.12.2013 09:16 0,9 C 0,0 C 96 % 1023,1 hPa 0,0 l/m 0 min 0 min 0,0 UV-I 19 W/m 12,9 km/h (3 Bft)
30.12.2013 09:18 0,9 C 0,0 C 96 % 1023,1 hPa 0,0 l/m 0 min 0 min 0,0 UV-I 21 W/m 10,3 km/h (2 Bft)
30.12.2013 09:20 1,0 C 0,0 C 96 % 1023,2 hPa 0,0 l/m 0 min 0 min 0,0 UV-I 21 W/m 7,7 km/h (2 Bft)
30.12.2013 09:22 1,0 C 0,0 C 96 % 1023,2 hPa 0,0 l/m 0 min 0 min 0,0 UV-I 23 W/m 10,3 km/h (2 Bft)
30.12.2013 09:24 1,0 C 0,0 C 97 % 1023,1 hPa 0,0 l/m 0 min 0 min 0,0 UV-I 23 W/m 12,9 km/h (3 Bft)
30.12.2013 09:26 1,0 C 0,0 C 97 % 1023,2 hPa 0,0 l/m 0 min 0 min 0,0 UV-I 25 W/m 7,7 km/h (2 Bft)
30.12.2013 09:28 1,1 C 0,0 C 97 % 1023,2 hPa 0,0 l/m 0 min 0 min 0,0 UV-I 25 W/m 10,3 km/h (2 Bft)
30.12.2013 09:30 1,1 C 0,0 C 96 % 1023,2 hPa 0,0 l/m 0 min 0 min 0,0 UV-I 40 W/m 7,7 km/h (2 Bft)
30.12.2013 09:32 1,1 C 0,0 C 96 % 1023,2 hPa 0,0 l/m 0 min 0 min 0,0 UV-I 51 W/m 10,3 km/h (2 Bft)
30.12.2013 09:34 1,1 C 0,0 C 96 % 1023,2 hPa 0,0 l/m 0 min 0 min 0,0 UV-I 46 W/m 10,3 km/h (2 Bft)
30.12.2013 09:36 1,1 C 0,0 C 96 % 1023,2 hPa 0,0 l/m 0 min 0 min 0,0 UV-I 40 W/m 7,7 km/h (2 Bft)
30.12.2013 09:38 1,2 C 0,0 C 96 % 1023,1 hPa 0,0 l/m 0 min 0 min 0,0 UV-I 46 W/m 0,0 km/h (0 Bft)
30.12.2013 09:40 1,2 C 0,0 C 96 % 1023,1 hPa 0,0 l/m 0 min 0 min 0,0 UV-I 40 W/m 7,7 km/h (2 Bft)
30.12.2013 09:42 1,2 C 0,6 C 96 % 1023,1 hPa 0,0 l/m 0 min 0 min 0,0 UV-I 46 W/m 15,4 km/h (3 Bft)
30.12.2013 09:44 1,2 C 0,6 C 96 % 1023,1 hPa 0,0 l/m 2 min 0 min 0,0 UV-I 65 W/m 10,3 km/h (2 Bft)
30.12.2013 09:46 1,2 C 0,6 C 96 % 1023,0 hPa 0,0 l/m 2 min 0 min 0,0 UV-I 70 W/m 5,1 km/h (1 Bft)
30.12.2013 09:48 1,3 C 0,6 C 96 % 1023,0 hPa 0,0 l/m 0 min 0 min 0,0 UV-I 67 W/m 7,7 km/h (2 Bft)
30.12.2013 09:50 1,3 C 0,6 C 96 % 1022,9 hPa 0,0 l/m 2 min 0 min 0,0 UV-I 77 W/m 12,9 km/h (3 Bft)
30.12.2013 09:52 1,3 C 0,6 C 96 % 1022,9 hPa 0,0 l/m 2 min 0 min 0,0 UV-I 86 W/m 7,7 km/h (2 Bft)
30.12.2013 09:54 1,3 C 0,6 C 96 % 1023,0 hPa 0,0 l/m 2 min 0 min 0,0 UV-I 91 W/m 7,7 km/h (2 Bft)
30.12.2013 09:56 1,4 C 0,6 C 96 % 1023,0 hPa 0,0 l/m 2 min 0 min 0,0 UV-I 93 W/m 15,4 km/h (3 Bft)
30.12.2013 09:58 1,4 C 0,6 C 96 % 1023,0 hPa 0,0 l/m 2 min 0 min 0,0 UV-I 97 W/m 10,3 km/h (2 Bft)
30.12.2013 10:00 1,4 C 0,6 C 96 % 1022,9 hPa 0,0 l/m 2 min 0 min 0,0 UV-I 98 W/m 10,3 km/h (2 Bft)
30.12.2013 10:02 1,5 C 1,1 C 96 % 1023,0 hPa 0,0 l/m 2 min 0 min 0,0 UV-I 102 W/m 15,4 km/h (3 Bft)
30.12.2013 10:04 1,6 C 1,1 C 96 % 1023,0 hPa 0,0 l/m 2 min 0 min 0,0 UV-I 105 W/m 18,0 km/h (3 Bft)
30.12.2013 10:06 1,6 C 1,1 C 96 % 1023,0 hPa 0,0 l/m 2 min 0 min 0,0 UV-I 107 W/m 15,4 km/h (3 Bft)
30.12.2013 10:08 1,7 C 1,1 C 97 % 1023,0 hPa 0,0 l/m 2 min 0 min 0,0 UV-I 109 W/m 18,0 km/h (3 Bft)
30.12.2013 10:10 1,7 C 1,1 C 97 % 1022,9 hPa 0,0 l/m 2 min 0 min 0,0 UV-I 111 W/m 18,0 km/h (3 Bft)
30.12.2013 10:12 1,8 C 1,1 C 97 % 1023,0 hPa 0,0 l/m 2 min 0 min 0,0 UV-I 111 W/m 15,4 km/h (3 Bft)
30.12.2013 10:14 1,8 C 1,1 C 96 % 1023,0 hPa 0,0 l/m 2 min 0 min 0,0 UV-I 107 W/m 12,9 km/h (3 Bft)
30.12.2013 10:16 1,9 C 1,1 C 96 % 1023,0 hPa 0,0 l/m 2 min 0 min 0,0 UV-I 104 W/m 15,4 km/h (3 Bft)
30.12.2013 10:18 1,9 C 1,1 C 96 % 1023,0 hPa 0,0 l/m 2 min 0 min 0,0 UV-I 102 W/m 12,9 km/h (3 Bft)
30.12.2013 10:20 1,9 C 1,1 C 96 % 1023,1 hPa 0,0 l/m 2 min 0 min 0,0 UV-I 104 W/m 10,3 km/h (2 Bft)
30.12.2013 10:22 2,0 C 1,1 C 97 % 1023,0 hPa 0,0 l/m 2 min 0 min 0,0 UV-I 100 W/m 12,9 km/h (3 Bft)
30.12.2013 10:24 2,1 C 1,1 C 96 % 1023,1 hPa 0,0 l/m 2 min 0 min 0,0 UV-I 107 W/m 12,9 km/h (3 Bft)
30.12.2013 10:26 2,1 C 1,1 C 96 % 1023,1 hPa 0,0 l/m 2 min 0 min 0,0 UV-I 111 W/m 18,0 km/h (3 Bft)
30.12.2013 10:28 2,1 C 1,1 C 96 % 1023,1 hPa 0,0 l/m 2 min 0 min 0,0 UV-I 113 W/m 12,9 km/h (3 Bft)
30.12.2013 10:30 2,2 C 1,7 C 96 % 1023,0 hPa 0,0 l/m 2 min 0 min 0,0 UV-I 118 W/m 15,4 km/h (3 Bft)
30.12.2013 10:32 2,2 C 1,7 C 96 % 1023,0 hPa 0,0 l/m 2 min 0 min 0,0 UV-I 121 W/m 10,3 km/h (2 Bft)
30.12.2013 10:34 2,3 C 1,7 C 96 % 1023,1 hPa 0,0 l/m 2 min 0 min 0,0 UV-I 128 W/m 12,9 km/h (3 Bft)
30.12.2013 10:36 2,3 C 1,7 C 96 % 1023,1 hPa 0,0 l/m 2 min 0 min 0,0 UV-I 132 W/m 12,9 km/h (3 Bft)
30.12.2013 10:38 2,4 C 1,7 C 96 % 1023,1 hPa 0,0 l/m 2 min 0 min 0,0 UV-I 135 W/m 10,3 km/h (2 Bft)
30.12.2013 10:40 2,4 C 1,7 C 96 % 1023,1 hPa 0,0 l/m 2 min 0 min 0,0 UV-I 134 W/m 10,3 km/h (2 Bft)
30.12.2013 10:42 2,4 C 1,7 C 96 % 1023,0 hPa 0,0 l/m 2 min 0 min 0,0 UV-I 135 W/m 10,3 km/h (2 Bft)
30.12.2013 10:44 2,5 C 1,7 C 96 % 1022,9 hPa 0,0 l/m 2 min 0 min 0,0 UV-I 137 W/m 5,1 km/h (1 Bft)
30.12.2013 10:46 2,7 C 1,7 C 96 % 1023,0 hPa 0,0 l/m 2 min 0 min 0,0 UV-I 144 W/m 10,3 km/h (2 Bft)
30.12.2013 10:48 2,8 C 1,7 C 96 % 1023,0 hPa 0,0 l/m 2 min 0 min 0,0 UV-I 151 W/m 20,6 km/h (4 Bft)
30.12.2013 10:50 3,1 C 2,2 C 96 % 1022,9 hPa 0,0 l/m 2 min 0 min 0,0 UV-I 153 W/m 10,3 km/h (2 Bft)
30.12.2013 10:52 3,2 C 2,2 C 96 % 1022,9 hPa 0,0 l/m 2 min 0 min 0,0 UV-I 162 W/m 10,3 km/h (2 Bft)
30.12.2013 10:54 3,4 C 2,2 C 96 % 1022,8 hPa 0,0 l/m 2 min 0 min 0,0 UV-I 139 W/m 15,4 km/h (3 Bft)
30.12.2013 10:56 3,5 C 2,2 C 95 % 1022,8 hPa 0,0 l/m 2 min 0 min 0,0 UV-I 158 W/m 18,0 km/h (3 Bft)
30.12.2013 10:58 3,7 C 2,2 C 95 % 1022,8 hPa 0,0 l/m 2 min 0 min 0,0 UV-I 169 W/m 12,9 km/h (3 Bft)
30.12.2013 11:00 3,8 C 2,2 C 94 % 1022,8 hPa 0,0 l/m 2 min 0 min 0,0 UV-I 176 W/m 12,9 km/h (3 Bft)
30.12.2013 11:02 3,9 C 2,8 C 93 % 1022,8 hPa 0,0 l/m 2 min 0 min 0,0 UV-I 169 W/m 10,3 km/h (2 Bft)
30.12.2013 11:04 4,1 C 2,8 C 93 % 1022,7 hPa 0,0 l/m 2 min 0 min 0,0 UV-I 178 W/m 10,3 km/h (2 Bft)
30.12.2013 11:06 4,2 C 2,8 C 92 % 1022,7 hPa 0,0 l/m 2 min 0 min 0,0 UV-I 176 W/m 7,7 km/h (2 Bft)
30.12.2013 11:08 4,3 C 2,8 C 91 % 1022,7 hPa 0,0 l/m 2 min 0 min 0,0 UV-I 172 W/m 10,3 km/h (2 Bft)
30.12.2013 11:10 4,4 C 2,8 C 91 % 1022,7 hPa 0,0 l/m 2 min 0 min 0,0 UV-I 176 W/m 12,9 km/h (3 Bft)
30.12.2013 11:12 4,5 C 2,8 C 90 % 1022,7 hPa 0,0 l/m 2 min 0 min 0,0 UV-I 176 W/m 23,2 km/h (4 Bft)
30.12.2013 11:14 4,7 C 3,3 C 89 % 1022,7 hPa 0,0 l/m 2 min 0 min 0,0 UV-I 178 W/m 28,3 km/h (4 Bft)
30.12.2013 11:16 4,8 C 3,3 C 89 % 1022,7 hPa 0,0 l/m 2 min 0 min 0,0 UV-I 156 W/m 23,2 km/h (4 Bft)
30.12.2013 11:18 4,9 C 3,3 C 88 % 1022,6 hPa 0,0 l/m 2 min 0 min 0,0 UV-I 169 W/m 20,6 km/h (4 Bft)
30.12.2013 11:20 5,0 C 3,3 C 87 % 1022,6 hPa 0,0 l/m 2 min 0 min 0,0 UV-I 176 W/m 20,6 km/h (4 Bft)
30.12.2013 11:22 5,1 C 3,3 C 87 % 1022,5 hPa 0,0 l/m 2 min 0 min 0,0 UV-I 176 W/m 15,4 km/h (3 Bft)
30.12.2013 11:24 5,2 C 3,3 C 87 % 1022,5 hPa 0,0 l/m 2 min 0 min 0,0 UV-I 176 W/m 23,2 km/h (4 Bft)
30.12.2013 11:26 5,2 C 3,3 C 86 % 1022,5 hPa 0,0 l/m 2 min 0 min 0,0 UV-I 188 W/m 20,6 km/h (4 Bft)
30.12.2013 11:28 5,3 C 3,9 C 86 % 1022,5 hPa 0,0 l/m 2 min 0 min 0,0 UV-I 190 W/m 23,2 km/h (4 Bft)
30.12.2013 11:30 5,3 C 3,9 C 86 % 1022,5 hPa 0,0 l/m 2 min 0 min 0,0 UV-I 188 W/m 12,9 km/h (3 Bft)
30.12.2013 11:32 5,4 C 3,9 C 86 % 1022,5 hPa 0,0 l/m 2 min 0 min 0,0 UV-I 188 W/m 23,2 km/h (4 Bft)
30.12.2013 11:34 5,4 C 3,9 C 85 % 1022,5 hPa 0,0 l/m 2 min 0 min 0,0 UV-I 185 W/m 25,7 km/h (4 Bft)
30.12.2013 11:36 5,5 C 3,9 C 85 % 1022,4 hPa 0,0 l/m 2 min 0 min 0,0 UV-I 183 W/m 20,6 km/h (4 Bft)
30.12.2013 11:38 5,5 C 3,9 C 84 % 1022,5 hPa 0,0 l/m 2 min 0 min 0,0 UV-I 178 W/m 15,4 km/h (3 Bft)
30.12.2013 11:40 5,5 C 3,9 C 84 % 1022,4 hPa 0,0 l/m 2 min 0 min 0,0 UV-I 176 W/m 25,7 km/h (4 Bft)
30.12.2013 11:42 5,6 C 3,9 C 84 % 1022,4 hPa 0,0 l/m 2 min 0 min 0,0 UV-I 178 W/m 25,7 km/h (4 Bft)
30.12.2013 11:44 5,6 C 3,9 C 84 % 1022,4 hPa 0,0 l/m 2 min 0 min 0,0 UV-I 176 W/m 20,6 km/h (4 Bft)
30.12.2013 11:46 5,6 C 3,9 C 84 % 1022,3 hPa 0,0 l/m 2 min 0 min 0,0 UV-I 165 W/m 20,6 km/h (4 Bft)
30.12.2013 11:48 5,6 C 3,9 C 84 % 1022,4 hPa 0,0 l/m 2 min 0 min 0,0 UV-I 165 W/m 18,0 km/h (3 Bft)
30.12.2013 11:50 5,6 C 4,4 C 84 % 1022,4 hPa 0,0 l/m 2 min 0 min 0,0 UV-I 167 W/m 20,6 km/h (4 Bft)
30.12.2013 11:52 5,6 C 4,4 C 83 % 1022,4 hPa 0,0 l/m 2 min 0 min 0,0 UV-I 167 W/m 23,2 km/h (4 Bft)
30.12.2013 11:54 5,6 C 4,4 C 84 % 1022,3 hPa 0,0 l/m 2 min 0 min 0,0 UV-I 169 W/m 20,6 km/h (4 Bft)
30.12.2013 11:56 5,7 C 4,4 C 83 % 1022,2 hPa 0,0 l/m 2 min 0 min 0,0 UV-I 176 W/m 28,3 km/h (4 Bft)
30.12.2013 11:58 5,7 C 4,4 C 83 % 1022,2 hPa 0,0 l/m 2 min 0 min 0,0 UV-I 186 W/m 20,6 km/h (4 Bft)
30.12.2013 12:00 5,7 C 4,4 C 83 % 1022,2 hPa 0,0 l/m 2 min 0 min 0,0 UV-I 193 W/m 23,2 km/h (4 Bft)
30.12.2013 12:02 5,7 C 4,4 C 83 % 1022,2 hPa 0,0 l/m 2 min 0 min 0,0 UV-I 197 W/m 18,0 km/h (3 Bft)
30.12.2013 12:04 5,8 C 4,4 C 83 % 1022,2 hPa 0,0 l/m 2 min 0 min 0,0 UV-I 206 W/m 25,7 km/h (4 Bft)
30.12.2013 12:06 5,8 C 4,4 C 83 % 1022,2 hPa 0,0 l/m 2 min 0 min 0,0 UV-I 204 W/m 28,3 km/h (4 Bft)
30.12.2013 12:08 5,9 C 4,4 C 82 % 1022,2 hPa 0,0 l/m 2 min 0 min 0,0 UV-I 218 W/m 28,3 km/h (4 Bft)
30.12.2013 12:10 6,0 C 4,4 C 82 % 1022,2 hPa 0,0 l/m 2 min 0 min 0,0 UV-I 227 W/m 20,6 km/h (4 Bft)
30.12.2013 12:12 6,1 C 5,0 C 82 % 1022,2 hPa 0,0 l/m 2 min 0 min 0,0 UV-I 234 W/m 23,2 km/h (4 Bft)
30.12.2013 12:14 6,2 C 5,0 C 82 % 1022,2 hPa 0,0 l/m 2 min 0 min 0,0 UV-I 250 W/m 10,3 km/h (2 Bft)
30.12.2013 12:16 6,3 C 5,0 C 82 % 1022,1 hPa 0,0 l/m 2 min 0 min 0,0 UV-I 246 W/m 20,6 km/h (4 Bft)
30.12.2013 12:18 6,4 C 5,0 C 81 % 1022,2 hPa 0,0 l/m 2 min 0 min 0,0 UV-I 239 W/m 25,7 km/h (4 Bft)
30.12.2013 12:20 6,4 C 5,0 C 81 % 1022,0 hPa 0,0 l/m 2 min 0 min 0,0 UV-I 223 W/m 25,7 km/h (4 Bft)
30.12.2013 12:22 6,4 C 5,0 C 80 % 1021,9 hPa 0,0 l/m 2 min 0 min 0,0 UV-I 206 W/m 20,6 km/h (4 Bft)
30.12.2013 12:24 6,4 C 5,0 C 80 % 1022,0 hPa 0,0 l/m 2 min 0 min 0,0 UV-I 190 W/m 25,7 km/h (4 Bft)
30.12.2013 12:26 6,4 C 5,0 C 80 % 1021,9 hPa 0,0 l/m 2 min 0 min 0,0 UV-I 185 W/m 25,7 km/h (4 Bft)
30.12.2013 12:28 6,4 C 5,0 C 80 % 1021,9 hPa 0,0 l/m 2 min 0 min 0,0 UV-I 179 W/m 20,6 km/h (4 Bft)
30.12.2013 12:30 6,4 C 5,0 C 80 % 1021,9 hPa 0,0 l/m 2 min 0 min 0,0 UV-I 179 W/m 20,6 km/h (4 Bft)
30.12.2013 12:32 6,4 C 5,0 C 80 % 1021,8 hPa 0,0 l/m 2 min 0 min 0,0 UV-I 200 W/m 15,4 km/h (3 Bft)
30.12.2013 12:34 6,4 C 5,0 C 80 % 1021,9 hPa 0,0 l/m 2 min 0 min 0,0 UV-I 218 W/m 23,2 km/h (4 Bft)
30.12.2013 12:36 6,4 C 5,0 C 80 % 1021,9 hPa 0,0 l/m 2 min 0 min 0,0 UV-I 220 W/m 23,2 km/h (4 Bft)
30.12.2013 12:38 6,4 C 5,0 C 80 % 1021,9 hPa 0,0 l/m 2 min 0 min 0,0 UV-I 211 W/m 25,7 km/h (4 Bft)
30.12.2013 12:40 6,4 C 5,0 C 80 % 1021,9 hPa 0,0 l/m 2 min 0 min 0,0 UV-I 204 W/m 23,2 km/h (4 Bft)
30.12.2013 12:42 6,5 C 5,0 C 80 % 1021,9 hPa 0,0 l/m 2 min 0 min 0,0 UV-I 202 W/m 18,0 km/h (3 Bft)
30.12.2013 12:44 6,5 C 5,0 C 80 % 1021,8 hPa 0,0 l/m 2 min 0 min 0,0 UV-I 193 W/m 23,2 km/h (4 Bft)
30.12.2013 12:46 6,5 C 5,0 C 80 % 1021,8 hPa 0,0 l/m 2 min 0 min 0,0 UV-I 190 W/m 25,7 km/h (4 Bft)
30.12.2013 12:48 6,5 C 5,0 C 79 % 1021,8 hPa 0,0 l/m 2 min 0 min 0,0 UV-I 163 W/m 23,2 km/h (4 Bft)
30.12.2013 12:50 6,5 C 5,0 C 79 % 1021,8 hPa 0,0 l/m 2 min 0 min 0,0 UV-I 163 W/m 15,4 km/h (3 Bft)
30.12.2013 12:52 6,6 C 5,0 C 80 % 1021,7 hPa 0,0 l/m 2 min 0 min 0,0 UV-I 181 W/m 18,0 km/h (3 Bft)
30.12.2013 12:54 6,6 C 5,0 C 79 % 1021,7 hPa 0,0 l/m 2 min 0 min 0,0 UV-I 181 W/m 20,6 km/h (4 Bft)
30.12.2013 12:56 6,6 C 5,0 C 79 % 1021,6 hPa 0,0 l/m 2 min 0 min 0,0 UV-I 169 W/m 18,0 km/h (3 Bft)
30.12.2013 12:58 6,5 C 5,0 C 80 % 1021,7 hPa 0,0 l/m 2 min 0 min 0,0 UV-I 174 W/m 15,4 km/h (3 Bft)
30.12.2013 13:00 6,5 C 5,0 C 80 % 1021,5 hPa 0,0 l/m 2 min 0 min 0,0 UV-I 165 W/m 18,0 km/h (3 Bft)
30.12.2013 13:02 6,5 C 5,0 C 79 % 1021,5 hPa 0,0 l/m 0 min 0 min 0,0 UV-I 142 W/m 18,0 km/h (3 Bft)
30.12.2013 13:04 6,4 C 5,0 C 79 % 1021,5 hPa 0,0 l/m 2 min 0 min 0,0 UV-I 153 W/m 18,0 km/h (3 Bft)
30.12.2013 13:06 6,4 C 5,0 C 79 % 1021,5 hPa 0,0 l/m 2 min 0 min 0,0 UV-I 163 W/m 20,6 km/h (4 Bft)
30.12.2013 13:08 6,4 C 5,0 C 79 % 1021,5 hPa 0,0 l/m 0 min 0 min 0,0 UV-I 142 W/m 18,0 km/h (3 Bft)
30.12.2013 13:10 6,4 C 5,0 C 79 % 1021,5 hPa 0,0 l/m 0 min 0 min 0,0 UV-I 135 W/m 30,9 km/h (5 Bft)
30.12.2013 13:12 6,4 C 5,0 C 79 % 1021,5 hPa 0,0 l/m 0 min 0 min 0,0 UV-I 134 W/m 23,2 km/h (4 Bft)
30.12.2013 13:14 6,4 C 5,0 C 79 % 1021,4 hPa 0,0 l/m 0 min 0 min 0,0 UV-I 135 W/m 23,2 km/h (4 Bft)
30.12.2013 13:16 6,4 C 5,0 C 79 % 1021,4 hPa 0,0 l/m 2 min 0 min 0,0 UV-I 148 W/m 15,4 km/h (3 Bft)
30.12.2013 13:18 6,4 C 5,0 C 79 % 1021,3 hPa 0,0 l/m 0 min 0 min 0,0 UV-I 137 W/m 28,3 km/h (4 Bft)
30.12.2013 13:20 6,3 C 5,0 C 79 % 1021,2 hPa 0,0 l/m 0 min 0 min 0,0 UV-I 127 W/m 23,2 km/h (4 Bft)
30.12.2013 13:22 6,3 C 5,0 C 80 % 1021,2 hPa 0,0 l/m 0 min 0 min 0,0 UV-I 118 W/m 18,0 km/h (3 Bft)
30.12.2013 13:24 6,3 C 5,0 C 80 % 1021,2 hPa 0,0 l/m 0 min 0 min 0,0 UV-I 120 W/m 23,2 km/h (4 Bft)
30.12.2013 13:26 6,2 C 5,0 C 79 % 1021,1 hPa 0,0 l/m 0 min 0 min 0,0 UV-I 125 W/m 25,7 km/h (4 Bft)
30.12.2013 13:28 6,2 C 4,4 C 79 % 1021,2 hPa 0,0 l/m 0 min 0 min 0,0 UV-I 130 W/m 25,7 km/h (4 Bft)
30.12.2013 13:30 6,2 C 5,0 C 79 % 1021,1 hPa 0,0 l/m 0 min 0 min 0,0 UV-I 107 W/m 25,7 km/h (4 Bft)
30.12.2013 13:32 6,1 C 4,4 C 79 % 1021,1 hPa 0,0 l/m 0 min 0 min 0,0 UV-I 102 W/m 20,6 km/h (4 Bft)
30.12.2013 13:34 6,1 C 4,4 C 80 % 1021,1 hPa 0,0 l/m 0 min 0 min 0,0 UV-I 100 W/m 33,5 km/h (5 Bft)
30.12.2013 13:36 6,1 C 4,4 C 80 % 1021,1 hPa 0,0 l/m 0 min 0 min 0,0 UV-I 104 W/m 28,3 km/h (4 Bft)
30.12.2013 13:38 6,0 C 4,4 C 80 % 1021,1 hPa 0,0 l/m 0 min 0 min 0,0 UV-I 104 W/m 23,2 km/h (4 Bft)
30.12.2013 13:40 6,0 C 4,4 C 80 % 1021,0 hPa 0,0 l/m 0 min 0 min 0,0 UV-I 107 W/m 20,6 km/h (4 Bft)
30.12.2013 13:42 5,9 C 4,4 C 80 % 1021,0 hPa 0,0 l/m 0 min 0 min 0,0 UV-I 102 W/m 38,6 km/h (5 Bft)
30.12.2013 13:44 5,9 C 4,4 C 80 % 1021,0 hPa 0,0 l/m 0 min 0 min 0,0 UV-I 109 W/m 28,3 km/h (4 Bft)
30.12.2013 13:46 5,9 C 4,4 C 80 % 1020,8 hPa 0,0 l/m 0 min 0 min 0,0 UV-I 107 W/m 30,9 km/h (5 Bft)
30.12.2013 13:48 5,9 C 4,4 C 80 % 1020,8 hPa 0,0 l/m 2 min 0 min 0,0 UV-I 156 W/m 25,7 km/h (4 Bft)
30.12.2013 13:50 6,0 C 5,0 C 80 % 1020,8 hPa 0,0 l/m 2 min 0 min 0,0 UV-I 172 W/m 30,9 km/h (5 Bft)
30.12.2013 13:52 6,1 C 5,0 C 80 % 1020,7 hPa 0,0 l/m 2 min 0 min 0,0 UV-I 190 W/m 25,7 km/h (4 Bft)
30.12.2013 13:54 6,1 C 5,0 C 80 % 1020,7 hPa 0,0 l/m 2 min 0 min 0,0 UV-I 209 W/m 25,7 km/h (4 Bft)
30.12.2013 13:56 6,2 C 5,0 C 80 % 1020,8 hPa 0,0 l/m 2 min 0 min 0,0 UV-I 225 W/m 20,6 km/h (4 Bft)
30.12.2013 13:58 6,3 C 5,0 C 80 % 1020,7 hPa 0,0 l/m 2 min 0 min 0,0 UV-I 229 W/m 41,2 km/h (6 Bft)
30.12.2013 14:00 6,3 C 5,0 C 79 % 1020,7 hPa 0,0 l/m 2 min 0 min 0,0 UV-I 220 W/m 20,6 km/h (4 Bft)
30.12.2013 14:02 6,4 C 5,6 C 79 % 1020,7 hPa 0,0 l/m 2 min 0 min 0,0 UV-I 239 W/m 25,7 km/h (4 Bft)
30.12.2013 14:04 6,4 C 5,6 C 79 % 1020,6 hPa 0,0 l/m 2 min 0 min 0,0 UV-I 243 W/m 25,7 km/h (4 Bft)
30.12.2013 14:06 6,5 C 5,6 C 79 % 1020,6 hPa 0,0 l/m 2 min 0 min 0,0 UV-I 225 W/m 20,6 km/h (4 Bft)
30.12.2013 14:08 6,5 C 5,6 C 79 % 1020,6 hPa 0,0 l/m 2 min 0 min 0,0 UV-I 218 W/m 18,0 km/h (3 Bft)
30.12.2013 14:10 6,5 C 5,6 C 79 % 1020,6 hPa 0,0 l/m 2 min 0 min 0,0 UV-I 197 W/m 25,7 km/h (4 Bft)
30.12.2013 14:12 6,5 C 5,6 C 79 % 1020,6 hPa 0,0 l/m 2 min 0 min 0,0 UV-I 211 W/m 30,9 km/h (5 Bft)
30.12.2013 14:14 6,6 C 5,6 C 79 % 1020,6 hPa 0,0 l/m 2 min 0 min 0,0 UV-I 218 W/m 10,3 km/h (2 Bft)
30.12.2013 14:16 6,6 C 5,6 C 79 % 1020,5 hPa 0,0 l/m 2 min 0 min 0,0 UV-I 195 W/m 15,4 km/h (3 Bft)
30.12.2013 14:18 6,7 C 5,6 C 79 % 1020,5 hPa 0,0 l/m 2 min 0 min 0,0 UV-I 183 W/m 20,6 km/h (4 Bft)
30.12.2013 14:20 6,7 C 5,6 C 79 % 1020,3 hPa 0,0 l/m 2 min 0 min 0,0 UV-I 172 W/m 23,2 km/h (4 Bft)
30.12.2013 14:22 6,6 C 5,6 C 79 % 1020,3 hPa 0,0 l/m 2 min 0 min 0,0 UV-I 156 W/m 28,3 km/h (4 Bft)
30.12.2013 14:24 6,4 C 5,0 C 79 % 1020,4 hPa 0,0 l/m 2 min 0 min 0,0 UV-I 167 W/m 18,0 km/h (3 Bft)
30.12.2013 14:26 6,4 C 5,0 C 79 % 1020,3 hPa 0,0 l/m 2 min 0 min 0,0 UV-I 179 W/m 23,2 km/h (4 Bft)
30.12.2013 14:28 6,4 C 5,0 C 79 % 1020,3 hPa 0,0 l/m 2 min 0 min 0,0 UV-I 172 W/m 20,6 km/h (4 Bft)
30.12.2013 14:30 6,4 C 5,0 C 79 % 1020,2 hPa 0,0 l/m 2 min 0 min 0,0 UV-I 153 W/m 23,2 km/h (4 Bft)
30.12.2013 14:32 6,3 C 5,0 C 79 % 1020,3 hPa 0,0 l/m 2 min 0 min 0,0 UV-I 125 W/m 18,0 km/h (3 Bft)
30.12.2013 14:34 6,3 C 5,0 C 79 % 1020,4 hPa 0,0 l/m 0 min 0 min 0,0 UV-I 88 W/m 15,4 km/h (3 Bft)
30.12.2013 14:36 6,3 C 5,0 C 79 % 1020,4 hPa 0,0 l/m 0 min 0 min 0,0 UV-I 84 W/m 23,2 km/h (4 Bft)
30.12.2013 14:38 6,2 C 5,0 C 79 % 1020,4 hPa 0,0 l/m 0 min 0 min 0,0 UV-I 81 W/m 20,6 km/h (4 Bft)
30.12.2013 14:40 6,2 C 5,0 C 80 % 1020,3 hPa 0,0 l/m 0 min 0 min 0,0 UV-I 77 W/m 12,9 km/h (3 Bft)
30.12.2013 14:42 6,1 C 5,0 C 80 % 1020,2 hPa 0,0 l/m 0 min 0 min 0,0 UV-I 74 W/m 25,7 km/h (4 Bft)
30.12.2013 14:44 6,1 C 5,0 C 79 % 1020,1 hPa 0,0 l/m 0 min 0 min 0,0 UV-I 70 W/m 28,3 km/h (4 Bft)
30.12.2013 14:46 6,1 C 5,0 C 79 % 1020,1 hPa 0,0 l/m 0 min 0 min 0,0 UV-I 65 W/m 23,2 km/h (4 Bft)
30.12.2013 14:48 6,1 C 5,0 C 80 % 1020,2 hPa 0,0 l/m 0 min 0 min 0,0 UV-I 63 W/m 10,3 km/h (2 Bft)
30.12.2013 14:50 6,1 C 5,0 C 80 % 1020,2 hPa 0,0 l/m 0 min 0 min 0,0 UV-I 63 W/m 20,6 km/h (4 Bft)
30.12.2013 14:52 6,1 C 5,0 C 80 % 1020,2 hPa 0,0 l/m 0 min 0 min 0,0 UV-I 65 W/m 18,0 km/h (3 Bft)
30.12.2013 14:54 6,1 C 5,0 C 81 % 1020,1 hPa 0,0 l/m 0 min 0 min 0,0 UV-I 67 W/m 20,6 km/h (4 Bft)
30.12.2013 14:56 6,1 C 5,0 C 80 % 1020,0 hPa 0,0 l/m 0 min 0 min 0,0 UV-I 67 W/m 23,2 km/h (4 Bft)
30.12.2013 14:58 6,0 C 5,0 C 80 % 1020,1 hPa 0,0 l/m 0 min 0 min 0,0 UV-I 67 W/m 20,6 km/h (4 Bft)
30.12.2013 15:00 6,0 C 5,0 C 80 % 1020,1 hPa 0,0 l/m 0 min 0 min 0,0 UV-I 65 W/m 20,6 km/h (4 Bft)
30.12.2013 15:02 5,9 C 5,0 C 80 % 1020,1 hPa 0,0 l/m 0 min 0 min 0,0 UV-I 63 W/m 15,4 km/h (3 Bft)
30.12.2013 15:04 5,9 C 4,4 C 80 % 1020,0 hPa 0,0 l/m 0 min 0 min 0,0 UV-I 62 W/m 18,0 km/h (3 Bft)
30.12.2013 15:06 5,9 C 4,4 C 80 % 1020,0 hPa 0,0 l/m 0 min 0 min 0,0 UV-I 60 W/m 15,4 km/h (3 Bft)
30.12.2013 15:08 5,9 C 4,4 C 80 % 1019,9 hPa 0,0 l/m 0 min 0 min 0,0 UV-I 56 W/m 30,9 km/h (5 Bft)
30.12.2013 15:10 5,9 C 4,4 C 80 % 1019,9 hPa 0,0 l/m 0 min 0 min 0,0 UV-I 53 W/m 20,6 km/h (4 Bft)
30.12.2013 15:12 5,9 C 4,4 C 80 % 1020,0 hPa 0,0 l/m 0 min 0 min 0,0 UV-I 51 W/m 23,2 km/h (4 Bft)
30.12.2013 15:14 5,8 C 4,4 C 80 % 1019,9 hPa 0,0 l/m 0 min 0 min 0,0 UV-I 49 W/m 23,2 km/h (4 Bft)
30.12.2013 15:16 5,8 C 4,4 C 80 % 1019,9 hPa 0,0 l/m 0 min 0 min 0,0 UV-I 46 W/m 15,4 km/h (3 Bft)
30.12.2013 15:18 5,8 C 4,4 C 80 % 1019,9 hPa 0,0 l/m 0 min 0 min 0,0 UV-I 42 W/m 25,7 km/h (4 Bft)
30.12.2013 15:20 5,8 C 4,4 C 80 % 1019,9 hPa 0,0 l/m 0 min 0 min 0,0 UV-I 40 W/m 25,7 km/h (4 Bft)
30.12.2013 15:22 5,7 C 4,4 C 80 % 1019,8 hPa 0,0 l/m 0 min 0 min 0,0 UV-I 37 W/m 28,3 km/h (4 Bft)
30.12.2013 15:24 5,7 C 4,4 C 80 % 1019,9 hPa 0,0 l/m 0 min 0 min 0,0 UV-I 37 W/m 25,7 km/h (4 Bft)
30.12.2013 15:26 5,7 C 4,4 C 80 % 1019,8 hPa 0,0 l/m 0 min 0 min 0,0 UV-I 35 W/m 18,0 km/h (3 Bft)
30.12.2013 15:28 5,7 C 4,4 C 80 % 1019,8 hPa 0,0 l/m 0 min 0 min 0,0 UV-I 33 W/m 15,4 km/h (3 Bft)
30.12.2013 15:30 5,7 C 4,4 C 80 % 1019,8 hPa 0,0 l/m 0 min 0 min 0,0 UV-I 33 W/m 28,3 km/h (4 Bft)
30.12.2013 15:32 5,7 C 4,4 C 81 % 1019,8 hPa 0,0 l/m 0 min 0 min 0,0 UV-I 32 W/m 23,2 km/h (4 Bft)
30.12.2013 15:34 5,7 C 4,4 C 81 % 1019,7 hPa 0,0 l/m 0 min 0 min 0,0 UV-I 32 W/m 23,2 km/h (4 Bft)
30.12.2013 15:36 5,7 C 4,4 C 80 % 1019,7 hPa 0,0 l/m 0 min 0 min 0,0 UV-I 30 W/m 30,9 km/h (5 Bft)
30.12.2013 15:38 5,7 C 4,4 C 80 % 1019,6 hPa 0,0 l/m 0 min 0 min 0,0 UV-I 30 W/m 25,7 km/h (4 Bft)
30.12.2013 15:40 5,7 C 4,4 C 81 % 1019,5 hPa 0,0 l/m 0 min 0 min 0,0 UV-I 28 W/m 25,7 km/h (4 Bft)
30.12.2013 15:42 5,7 C 4,4 C 80 % 1019,5 hPa 0,0 l/m 0 min 0 min 0,0 UV-I 26 W/m 23,2 km/h (4 Bft)
30.12.2013 15:44 5,6 C 3,9 C 80 % 1019,4 hPa 0,0 l/m 0 min 0 min 0,0 UV-I 23 W/m 18,0 km/h (3 Bft)
30.12.2013 15:46 5,6 C 3,9 C 81 % 1019,4 hPa 0,0 l/m 0 min 0 min 0,0 UV-I 23 W/m 25,7 km/h (4 Bft)
30.12.2013 15:48 5,6 C 3,9 C 81 % 1019,4 hPa 0,0 l/m 0 min 0 min 0,0 UV-I 21 W/m 28,3 km/h (4 Bft)
30.12.2013 15:50 5,6 C 3,9 C 80 % 1019,3 hPa 0,0 l/m 0 min 0 min 0,0 UV-I 19 W/m 20,6 km/h (4 Bft)
30.12.2013 15:52 5,6 C 3,9 C 80 % 1019,3 hPa 0,0 l/m 0 min 0 min 0,0 UV-I 18 W/m 25,7 km/h (4 Bft)
30.12.2013 15:54 5,6 C 3,9 C 80 % 1019,3 hPa 0,0 l/m 0 min 0 min 0,0 UV-I 18 W/m 38,6 km/h (5 Bft)
30.12.2013 15:56 5,6 C 4,4 C 80 % 1019,2 hPa 0,0 l/m 0 min 0 min 0,0 UV-I 16 W/m 23,2 km/h (4 Bft)
30.12.2013 15:58 5,7 C 3,9 C 80 % 1019,3 hPa 0,0 l/m 0 min 0 min 0,0 UV-I 16 W/m 28,3 km/h (4 Bft)
30.12.2013 16:00 5,7 C 3,9 C 79 % 1019,1 hPa 0,0 l/m 0 min 0 min 0,0 UV-I 14 W/m 33,5 km/h (5 Bft)
30.12.2013 16:02 5,7 C 3,9 C 79 % 1019,2 hPa 0,0 l/m 0 min 0 min 0,0 UV-I 14 W/m 33,5 km/h (5 Bft)
30.12.2013 16:04 5,7 C 3,9 C 79 % 1019,1 hPa 0,0 l/m 0 min 0 min 0,0 UV-I 14 W/m 23,2 km/h (4 Bft)
30.12.2013 16:06 5,7 C 3,9 C 79 % 1019,3 hPa 0,0 l/m 0 min 0 min 0,0 UV-I 12 W/m 36,0 km/h (5 Bft)
30.12.2013 16:08 5,7 C 3,9 C 79 % 1019,2 hPa 0,0 l/m 0 min 0 min 0,0 UV-I 12 W/m 28,3 km/h (4 Bft)
30.12.2013 16:10 5,7 C 3,9 C 79 % 1019,2 hPa 0,0 l/m 0 min 0 min 0,0 UV-I 12 W/m 25,7 km/h (4 Bft)
30.12.2013 16:12 5,7 C 3,9 C 79 % 1019,2 hPa 0,0 l/m 0 min 0 min 0,0 UV-I 11 W/m 25,7 km/h (4 Bft)
30.12.2013 16:14 5,7 C 3,9 C 79 % 1019,0 hPa 0,0 l/m 0 min 0 min 0,0 UV-I 11 W/m 28,3 km/h (4 Bft)
30.12.2013 16:16 5,7 C 3,9 C 79 % 1019,2 hPa 0,0 l/m 0 min 0 min 0,0 UV-I 9 W/m 30,9 km/h (5 Bft)
30.12.2013 16:18 5,7 C 3,9 C 79 % 1019,1 hPa 0,0 l/m 0 min 0 min 0,0 UV-I 9 W/m 28,3 km/h (4 Bft)
30.12.2013 16:20 5,7 C 3,9 C 79 % 1019,1 hPa 0,0 l/m 0 min 0 min 0,0 UV-I 7 W/m 30,9 km/h (5 Bft)
30.12.2013 16:22 5,7 C 3,9 C 79 % 1019,1 hPa 0,0 l/m 0 min 0 min 0,0 UV-I 7 W/m 25,7 km/h (4 Bft)
30.12.2013 16:24 5,7 C 3,9 C 79 % 1019,1 hPa 0,0 l/m 0 min 0 min 0,0 UV-I 5 W/m 25,7 km/h (4 Bft)
30.12.2013 16:26 5,7 C 3,9 C 79 % 1019,1 hPa 0,0 l/m 0 min 0 min 0,0 UV-I 5 W/m 25,7 km/h (4 Bft)
30.12.2013 16:28 5,7 C 3,9 C 79 % 1019,1 hPa 0,0 l/m 0 min 0 min 0,0 UV-I 0 W/m 23,2 km/h (4 Bft)
30.12.2013 16:30 5,6 C 3,9 C 79 % 1019,1 hPa 0,0 l/m 0 min 0 min 0,0 UV-I 0 W/m 23,2 km/h (4 Bft)
30.12.2013 16:32 5,7 C 3,9 C 79 % 1019,1 hPa 0,0 l/m 0 min 0 min 0,0 UV-I 0 W/m 28,3 km/h (4 Bft)
30.12.2013 16:34 5,7 C 3,9 C 79 % 1019,2 hPa 0,0 l/m 0 min 0 min 0,0 UV-I 0 W/m 23,2 km/h (4 Bft)
30.12.2013 16:36 5,7 C 3,9 C 79 % 1019,2 hPa 0,0 l/m 0 min 0 min 0,0 UV-I 0 W/m 15,4 km/h (3 Bft)
30.12.2013 16:38 5,6 C 3,9 C 79 % 1019,1 hPa 0,0 l/m 0 min 0 min 0,0 UV-I 0 W/m 23,2 km/h (4 Bft)
30.12.2013 16:40 5,6 C 3,9 C 79 % 1019,2 hPa 0,0 l/m 0 min 0 min 0,0 UV-I 0 W/m 23,2 km/h (4 Bft)
30.12.2013 16:42 5,6 C 3,9 C 79 % 1019,2 hPa 0,0 l/m 0 min 0 min 0,0 UV-I 0 W/m 15,4 km/h (3 Bft)
30.12.2013 16:44 5,6 C 3,9 C 79 % 1019,1 hPa 0,0 l/m 0 min 0 min 0,0 UV-I 0 W/m 28,3 km/h (4 Bft)
30.12.2013 16:46 5,6 C 3,9 C 79 % 1019,2 hPa 0,0 l/m 0 min 0 min 0,0 UV-I 0 W/m 20,6 km/h (4 Bft)
30.12.2013 16:48 5,6 C 3,9 C 79 % 1019,1 hPa 0,0 l/m 0 min 0 min 0,0 UV-I 0 W/m 20,6 km/h (4 Bft)
30.12.2013 16:50 5,6 C 3,9 C 79 % 1019,1 hPa 0,0 l/m 0 min 0 min 0,0 UV-I 0 W/m 28,3 km/h (4 Bft)
30.12.2013 16:52 5,6 C 3,9 C 79 % 1019,0 hPa 0,0 l/m 0 min 0 min 0,0 UV-I 0 W/m 18,0 km/h (3 Bft)
30.12.2013 16:54 5,7 C 3,9 C 79 % 1018,9 hPa 0,0 l/m 0 min 0 min 0,0 UV-I 0 W/m 20,6 km/h (4 Bft)
30.12.2013 16:56 5,7 C 3,9 C 79 % 1018,9 hPa 0,0 l/m 0 min 0 min 0,0 UV-I 0 W/m 20,6 km/h (4 Bft)
30.12.2013 16:58 5,7 C 3,9 C 79 % 1018,8 hPa 0,0 l/m 0 min 0 min 0,0 UV-I 0 W/m 25,7 km/h (4 Bft)
30.12.2013 17:00 5,7 C 3,9 C 79 % 1019,0 hPa 0,0 l/m 0 min 0 min 0,0 UV-I 0 W/m 15,4 km/h (3 Bft)
30.12.2013 17:02 5,7 C 3,9 C 79 % 1019,0 hPa 0,0 l/m 0 min 0 min 0,0 UV-I 0 W/m 30,9 km/h (5 Bft)
30.12.2013 17:04 5,7 C 3,9 C 79 % 1018,9 hPa 0,0 l/m 0 min 0 min 0,0 UV-I 0 W/m 23,2 km/h (4 Bft)
30.12.2013 17:06 5,7 C 3,9 C 79 % 1018,9 hPa 0,0 l/m 0 min 0 min 0,0 UV-I 0 W/m 38,6 km/h (5 Bft)
30.12.2013 17:08 5,7 C 4,4 C 79 % 1018,9 hPa 0,0 l/m 0 min 0 min 0,0 UV-I 0 W/m 28,3 km/h (4 Bft)
30.12.2013 17:10 5,8 C 4,4 C 79 % 1018,9 hPa 0,0 l/m 0 min 0 min 0,0 UV-I 0 W/m 28,3 km/h (4 Bft)
30.12.2013 17:12 5,8 C 4,4 C 79 % 1018,7 hPa 0,0 l/m 0 min 0 min 0,0 UV-I 0 W/m 28,3 km/h (4 Bft)
30.12.2013 17:14 5,8 C 4,4 C 79 % 1018,7 hPa 0,0 l/m 0 min 0 min 0,0 UV-I 0 W/m 41,2 km/h (6 Bft)
30.12.2013 17:16 5,8 C 4,4 C 78 % 1018,8 hPa 0,0 l/m 0 min 0 min 0,0 UV-I 0 W/m 30,9 km/h (5 Bft)
30.12.2013 17:18 5,8 C 4,4 C 78 % 1018,8 hPa 0,0 l/m 0 min 0 min 0,0 UV-I 0 W/m 28,3 km/h (4 Bft)
30.12.2013 17:20 5,8 C 4,4 C 78 % 1018,6 hPa 0,0 l/m 0 min 0 min 0,0 UV-I 0 W/m 30,9 km/h (5 Bft)
30.12.2013 17:22 5,9 C 4,4 C 78 % 1018,6 hPa 0,0 l/m 0 min 0 min 0,0 UV-I 0 W/m 30,9 km/h (5 Bft)
30.12.2013 17:24 5,8 C 4,4 C 78 % 1018,6 hPa 0,0 l/m 0 min 0 min 0,0 UV-I 0 W/m 25,7 km/h (4 Bft)
30.12.2013 17:26 5,8 C 4,4 C 78 % 1018,6 hPa 0,0 l/m 0 min 0 min 0,0 UV-I 0 W/m 28,3 km/h (4 Bft)
30.12.2013 17:28 5,8 C 4,4 C 78 % 1018,6 hPa 0,0 l/m 0 min 0 min 0,0 UV-I 0 W/m 33,5 km/h (5 Bft)
30.12.2013 17:30 5,8 C 4,4 C 78 % 1018,6 hPa 0,0 l/m 0 min 0 min 0,0 UV-I 0 W/m 28,3 km/h (4 Bft)
30.12.2013 17:32 5,8 C 4,4 C 78 % 1018,6 hPa 0,0 l/m 0 min 0 min 0,0 UV-I 0 W/m 25,7 km/h (4 Bft)
30.12.2013 17:34 5,8 C 4,4 C 78 % 1018,6 hPa 0,0 l/m 0 min 0 min 0,0 UV-I 0 W/m 23,2 km/h (4 Bft)
30.12.2013 17:36 5,8 C 4,4 C 78 % 1018,6 hPa 0,0 l/m 0 min 0 min 0,0 UV-I 0 W/m 36,0 km/h (5 Bft)
30.12.2013 17:38 5,8 C 4,4 C 78 % 1018,6 hPa 0,0 l/m 0 min 0 min 0,0 UV-I 0 W/m 30,9 km/h (5 Bft)
30.12.2013 17:40 5,9 C 4,4 C 78 % 1018,7 hPa 0,0 l/m 0 min 0 min 0,0 UV-I 0 W/m 28,3 km/h (4 Bft)
30.12.2013 17:42 5,9 C 4,4 C 78 % 1018,6 hPa 0,0 l/m 0 min 0 min 0,0 UV-I 0 W/m 30,9 km/h (5 Bft)
30.12.2013 17:44 5,9 C 4,4 C 78 % 1018,7 hPa 0,0 l/m 0 min 0 min 0,0 UV-I 0 W/m 25,7 km/h (4 Bft)
30.12.2013 17:46 5,9 C 4,4 C 78 % 1018,8 hPa 0,0 l/m 0 min 0 min 0,0 UV-I 0 W/m 30,9 km/h (5 Bft)
30.12.2013 17:48 5,9 C 4,4 C 78 % 1018,6 hPa 0,0 l/m 0 min 0 min 0,0 UV-I 0 W/m 25,7 km/h (4 Bft)
30.12.2013 17:50 5,9 C 4,4 C 78 % 1018,7 hPa 0,0 l/m 0 min 0 min 0,0 UV-I 0 W/m 36,0 km/h (5 Bft)
30.12.2013 17:52 5,9 C 4,4 C 78 % 1018,8 hPa 0,0 l/m 0 min 0 min 0,0 UV-I 0 W/m 28,3 km/h (4 Bft)
30.12.2013 17:54 5,9 C 4,4 C 78 % 1018,8 hPa 0,0 l/m 0 min 0 min 0,0 UV-I 0 W/m 23,2 km/h (4 Bft)
30.12.2013 17:56 5,9 C 4,4 C 78 % 1018,8 hPa 0,0 l/m 0 min 0 min 0,0 UV-I 0 W/m 23,2 km/h (4 Bft)
30.12.2013 17:58 5,9 C 4,4 C 78 % 1018,8 hPa 0,0 l/m 0 min 0 min 0,0 UV-I 0 W/m 25,7 km/h (4 Bft)
30.12.2013 18:00 5,8 C 4,4 C 78 % 1018,8 hPa 0,0 l/m 0 min 0 min 0,0 UV-I 0 W/m 25,7 km/h (4 Bft)
30.12.2013 18:02 5,8 C 4,4 C 78 % 1018,8 hPa 0,0 l/m 0 min 0 min 0,0 UV-I 0 W/m 20,6 km/h (4 Bft)
30.12.2013 18:04 5,8 C 4,4 C 78 % 1018,7 hPa 0,0 l/m 0 min 0 min 0,0 UV-I 0 W/m 28,3 km/h (4 Bft)
30.12.2013 18:06 5,8 C 4,4 C 78 % 1018,6 hPa 0,0 l/m 0 min 0 min 0,0 UV-I 0 W/m 20,6 km/h (4 Bft)
30.12.2013 18:08 5,8 C 4,4 C 78 % 1018,7 hPa 0,0 l/m 0 min 0 min 0,0 UV-I 0 W/m 25,7 km/h (4 Bft)
30.12.2013 18:10 5,8 C 4,4 C 78 % 1018,7 hPa 0,0 l/m 0 min 0 min 0,0 UV-I 0 W/m 28,3 km/h (4 Bft)
30.12.2013 18:12 5,8 C 4,4 C 78 % 1018,7 hPa 0,0 l/m 0 min 0 min 0,0 UV-I 0 W/m 12,9 km/h (3 Bft)
30.12.2013 18:14 5,8 C 3,9 C 78 % 1018,8 hPa 0,0 l/m 0 min 0 min 0,0 UV-I 0 W/m 18,0 km/h (3 Bft)
30.12.2013 18:16 5,8 C 3,9 C 78 % 1018,7 hPa 0,0 l/m 0 min 0 min 0,0 UV-I 0 W/m 28,3 km/h (4 Bft)
30.12.2013 18:18 5,8 C 4,4 C 78 % 1018,7 hPa 0,0 l/m 0 min 0 min 0,0 UV-I 0 W/m 30,9 km/h (5 Bft)
30.12.2013 18:20 5,8 C 4,4 C 78 % 1018,7 hPa 0,0 l/m 0 min 0 min 0,0 UV-I 0 W/m 33,5 km/h (5 Bft)
30.12.2013 18:22 5,8 C 4,4 C 78 % 1018,7 hPa 0,0 l/m 0 min 0 min 0,0 UV-I 0 W/m 25,7 km/h (4 Bft)
30.12.2013 18:24 5,8 C 4,4 C 78 % 1018,6 hPa 0,0 l/m 0 min 0 min 0,0 UV-I 0 W/m 25,7 km/h (4 Bft)
30.12.2013 18:26 5,8 C 4,4 C 78 % 1018,6 hPa 0,0 l/m 0 min 0 min 0,0 UV-I 0 W/m 36,0 km/h (5 Bft)
30.12.2013 18:28 5,8 C 4,4 C 78 % 1018,6 hPa 0,0 l/m 0 min 0 min 0,0 UV-I 0 W/m 30,9 km/h (5 Bft)
30.12.2013 18:30 5,8 C 4,4 C 78 % 1018,7 hPa 0,0 l/m 0 min 0 min 0,0 UV-I 0 W/m 36,0 km/h (5 Bft)
30.12.2013 18:32 5,8 C 4,4 C 78 % 1018,6 hPa 0,0 l/m 0 min 0 min 0,0 UV-I 0 W/m 25,7 km/h (4 Bft)
30.12.2013 18:34 5,8 C 4,4 C 78 % 1018,7 hPa 0,0 l/m 0 min 0 min 0,0 UV-I 0 W/m 25,7 km/h (4 Bft)
30.12.2013 18:36 5,8 C 4,4 C 78 % 1018,8 hPa 0,0 l/m 0 min 0 min 0,0 UV-I 0 W/m 15,4 km/h (3 Bft)
30.12.2013 18:38 5,8 C 4,4 C 78 % 1018,7 hPa 0,0 l/m 0 min 0 min 0,0 UV-I 0 W/m 20,6 km/h (4 Bft)
30.12.2013 18:40 5,8 C 4,4 C 78 % 1018,7 hPa 0,0 l/m 0 min 0 min 0,0 UV-I 0 W/m 23,2 km/h (4 Bft)
30.12.2013 18:42 5,8 C 4,4 C 78 % 1018,7 hPa 0,0 l/m 0 min 0 min 0,0 UV-I 0 W/m 20,6 km/h (4 Bft)
30.12.2013 18:44 5,8 C 3,9 C 78 % 1018,8 hPa 0,0 l/m 0 min 0 min 0,0 UV-I 0 W/m 15,4 km/h (3 Bft)
30.12.2013 18:46 5,8 C 3,9 C 78 % 1018,8 hPa 0,0 l/m 0 min 0 min 0,0 UV-I 0 W/m 30,9 km/h (5 Bft)
30.12.2013 18:48 5,8 C 3,9 C 78 % 1018,9 hPa 0,0 l/m 0 min 0 min 0,0 UV-I 0 W/m 30,9 km/h (5 Bft)
30.12.2013 18:50 5,8 C 3,9 C 78 % 1018,9 hPa 0,0 l/m 0 min 0 min 0,0 UV-I 0 W/m 15,4 km/h (3 Bft)
30.12.2013 18:52 5,7 C 3,9 C 78 % 1018,9 hPa 0,0 l/m 0 min 0 min 0,0 UV-I 0 W/m 20,6 km/h (4 Bft)
30.12.2013 18:54 5,7 C 3,9 C 78 % 1018,9 hPa 0,0 l/m 0 min 0 min 0,0 UV-I 0 W/m 15,4 km/h (3 Bft)
30.12.2013 18:56 5,7 C 4,4 C 78 % 1019,0 hPa 0,0 l/m 0 min 0 min 0,0 UV-I 0 W/m 18,0 km/h (3 Bft)
30.12.2013 18:58 5,7 C 4,4 C 78 % 1019,0 hPa 0,0 l/m 0 min 0 min 0,0 UV-I 0 W/m 28,3 km/h (4 Bft)
30.12.2013 19:00 5,7 C 4,4 C 78 % 1018,9 hPa 0,0 l/m 0 min 0 min 0,0 UV-I 0 W/m 20,6 km/h (4 Bft)
30.12.2013 19:02 5,7 C 4,4 C 78 % 1019,0 hPa 0,0 l/m 0 min 0 min 0,0 UV-I 0 W/m 12,9 km/h (3 Bft)
30.12.2013 19:04 5,7 C 4,4 C 78 % 1019,1 hPa 0,0 l/m 0 min 0 min 0,0 UV-I 0 W/m 28,3 km/h (4 Bft)
30.12.2013 19:06 5,7 C 4,4 C 78 % 1019,2 hPa 0,0 l/m 0 min 0 min 0,0 UV-I 0 W/m 25,7 km/h (4 Bft)
30.12.2013 19:08 5,7 C 4,4 C 78 % 1019,2 hPa 0,0 l/m 0 min 0 min 0,0 UV-I 0 W/m 25,7 km/h (4 Bft)
30.12.2013 19:10 5,7 C 3,9 C 79 % 1019,2 hPa 0,0 l/m 0 min 2 min 0,0 UV-I 0 W/m 25,7 km/h (4 Bft)
30.12.2013 19:12 5,7 C 3,9 C 79 % 1019,2 hPa 0,0 l/m 0 min 2 min 0,0 UV-I 0 W/m 18,0 km/h (3 Bft)
30.12.2013 19:14 5,7 C 3,3 C 80 % 1019,2 hPa 0,0 l/m 0 min 2 min 0,0 UV-I 0 W/m 15,4 km/h (3 Bft)
30.12.2013 19:16 5,7 C 3,3 C 80 % 1019,1 hPa 0,0 l/m 0 min 2 min 0,0 UV-I 0 W/m 10,3 km/h (2 Bft)
30.12.2013 19:18 5,6 C 3,3 C 81 % 1019,0 hPa 0,0 l/m 0 min 2 min 0,0 UV-I 0 W/m 18,0 km/h (3 Bft)
30.12.2013 19:20 5,5 C 2,8 C 82 % 1019,2 hPa 0,0 l/m 0 min 2 min 0,0 UV-I 0 W/m 23,2 km/h (4 Bft)
30.12.2013 19:22 5,4 C 2,8 C 83 % 1019,1 hPa 0,0 l/m 0 min 2 min 0,0 UV-I 0 W/m 25,7 km/h (4 Bft)
30.12.2013 19:24 5,3 C 2,8 C 83 % 1019,1 hPa 0,2 l/m 0 min 2 min 0,0 UV-I 0 W/m 23,2 km/h (4 Bft)
30.12.2013 19:26 5,2 C 2,8 C 84 % 1019,1 hPa 0,0 l/m 0 min 2 min 0,0 UV-I 0 W/m 20,6 km/h (4 Bft)
30.12.2013 19:28 5,2 C 2,8 C 84 % 1019,0 hPa 0,0 l/m 0 min 2 min 0,0 UV-I 0 W/m 23,2 km/h (4 Bft)
30.12.2013 19:30 5,1 C 2,8 C 84 % 1019,0 hPa 0,0 l/m 0 min 2 min 0,0 UV-I 0 W/m 15,4 km/h (3 Bft)
30.12.2013 19:32 5,1 C 2,8 C 85 % 1018,9 hPa 0,0 l/m 0 min 2 min 0,0 UV-I 0 W/m 23,2 km/h (4 Bft)
30.12.2013 19:34 5,0 C 2,8 C 85 % 1018,9 hPa 0,0 l/m 0 min 2 min 0,0 UV-I 0 W/m 23,2 km/h (4 Bft)
30.12.2013 19:36 4,9 C 2,8 C 85 % 1018,9 hPa 0,0 l/m 0 min 2 min 0,0 UV-I 0 W/m 25,7 km/h (4 Bft)
30.12.2013 19:38 4,9 C 2,8 C 85 % 1018,9 hPa 0,0 l/m 0 min 2 min 0,0 UV-I 0 W/m 23,2 km/h (4 Bft)
30.12.2013 19:40 4,9 C 2,8 C 85 % 1018,9 hPa 0,0 l/m 0 min 0 min 0,0 UV-I 0 W/m 23,2 km/h (4 Bft)
30.12.2013 19:42 4,9 C 2,8 C 85 % 1018,9 hPa 0,0 l/m 0 min 0 min 0,0 UV-I 0 W/m 15,4 km/h (3 Bft)
30.12.2013 19:44 4,9 C 2,8 C 85 % 1018,9 hPa 0,0 l/m 0 min 2 min 0,0 UV-I 0 W/m 20,6 km/h (4 Bft)
30.12.2013 19:46 4,9 C 2,8 C 86 % 1018,9 hPa 0,0 l/m 0 min 2 min 0,0 UV-I 0 W/m 18,0 km/h (3 Bft)
30.12.2013 19:48 4,8 C 2,8 C 86 % 1019,0 hPa 0,0 l/m 0 min 2 min 0,0 UV-I 0 W/m 23,2 km/h (4 Bft)
30.12.2013 19:50 4,8 C 2,8 C 86 % 1018,9 hPa 0,0 l/m 0 min 2 min 0,0 UV-I 0 W/m 23,2 km/h (4 Bft)
30.12.2013 19:52 4,8 C 2,8 C 86 % 1019,0 hPa 0,0 l/m 0 min 2 min 0,0 UV-I 0 W/m 20,6 km/h (4 Bft)
30.12.2013 19:54 4,8 C 2,8 C 86 % 1018,9 hPa 0,0 l/m 0 min 2 min 0,0 UV-I 0 W/m 30,9 km/h (5 Bft)
30.12.2013 19:56 4,8 C 2,8 C 86 % 1018,9 hPa 0,2 l/m 0 min 2 min 0,0 UV-I 0 W/m 18,0 km/h (3 Bft)
30.12.2013 19:58 4,7 C 2,8 C 86 % 1019,0 hPa 0,0 l/m 0 min 2 min 0,0 UV-I 0 W/m 20,6 km/h (4 Bft)
30.12.2013 20:00 4,7 C 2,8 C 87 % 1018,9 hPa 0,0 l/m 0 min 2 min 0,0 UV-I 0 W/m 12,9 km/h (3 Bft)
30.12.2013 20:02 4,7 C 2,8 C 87 % 1018,9 hPa 0,0 l/m 0 min 2 min 0,0 UV-I 0 W/m 18,0 km/h (3 Bft)
30.12.2013 20:04 4,7 C 2,8 C 87 % 1018,9 hPa 0,0 l/m 0 min 2 min 0,0 UV-I 0 W/m 20,6 km/h (4 Bft)
30.12.2013 20:06 4,7 C 2,8 C 87 % 1018,9 hPa 0,0 l/m 0 min 2 min 0,0 UV-I 0 W/m 20,6 km/h (4 Bft)
30.12.2013 20:08 4,6 C 2,8 C 87 % 1018,9 hPa 0,0 l/m 0 min 2 min 0,0 UV-I 0 W/m 20,6 km/h (4 Bft)
30.12.2013 20:10 4,6 C 2,2 C 87 % 1018,9 hPa 0,0 l/m 0 min 2 min 0,0 UV-I 0 W/m 23,2 km/h (4 Bft)
30.12.2013 20:12 4,6 C 2,2 C 87 % 1018,9 hPa 0,0 l/m 0 min 2 min 0,0 UV-I 0 W/m 23,2 km/h (4 Bft)
30.12.2013 20:14 4,6 C 2,2 C 87 % 1018,9 hPa 0,0 l/m 0 min 0 min 0,0 UV-I 0 W/m 23,2 km/h (4 Bft)
30.12.2013 20:16 4,6 C 2,2 C 87 % 1018,7 hPa 0,0 l/m 0 min 0 min 0,0 UV-I 0 W/m 28,3 km/h (4 Bft)
30.12.2013 20:18 4,6 C 2,8 C 87 % 1018,9 hPa 0,0 l/m 0 min 2 min 0,0 UV-I 0 W/m 23,2 km/h (4 Bft)
30.12.2013 20:20 4,6 C 2,8 C 87 % 1018,7 hPa 0,0 l/m 0 min 0 min 0,0 UV-I 0 W/m 18,0 km/h (3 Bft)
30.12.2013 20:22 4,6 C 2,8 C 87 % 1018,7 hPa 0,0 l/m 0 min 2 min 0,0 UV-I 0 W/m 20,6 km/h (4 Bft)
30.12.2013 20:24 4,6 C 2,8 C 87 % 1018,7 hPa 0,0 l/m 0 min 2 min 0,0 UV-I 0 W/m 15,4 km/h (3 Bft)
30.12.2013 20:26 4,7 C 2,8 C 87 % 1018,7 hPa 0,0 l/m 0 min 0 min 0,0 UV-I 0 W/m 30,9 km/h (5 Bft)
30.12.2013 20:28 4,7 C 2,8 C 86 % 1018,7 hPa 0,0 l/m 0 min 0 min 0,0 UV-I 0 W/m 23,2 km/h (4 Bft)
30.12.2013 20:30 4,7 C 2,8 C 86 % 1018,6 hPa 0,0 l/m 0 min 0 min 0,0 UV-I 0 W/m 18,0 km/h (3 Bft)
30.12.2013 20:32 4,7 C 2,8 C 86 % 1018,8 hPa 0,0 l/m 0 min 0 min 0,0 UV-I 0 W/m 23,2 km/h (4 Bft)
30.12.2013 20:34 4,7 C 2,8 C 86 % 1018,8 hPa 0,0 l/m 0 min 0 min 0,0 UV-I 0 W/m 18,0 km/h (3 Bft)
30.12.2013 20:36 4,7 C 2,8 C 86 % 1018,8 hPa 0,0 l/m 0 min 0 min 0,0 UV-I 0 W/m 20,6 km/h (4 Bft)
30.12.2013 20:38 4,7 C 2,8 C 86 % 1018,6 hPa 0,0 l/m 0 min 0 min 0,0 UV-I 0 W/m 18,0 km/h (3 Bft)
30.12.2013 20:40 4,7 C 2,8 C 86 % 1018,6 hPa 0,0 l/m 0 min 0 min 0,0 UV-I 0 W/m 20,6 km/h (4 Bft)
30.12.2013 20:42 4,7 C 2,8 C 86 % 1018,7 hPa 0,0 l/m 0 min 0 min 0,0 UV-I 0 W/m 20,6 km/h (4 Bft)
30.12.2013 20:44 4,7 C 2,8 C 86 % 1018,7 hPa 0,0 l/m 0 min 0 min 0,0 UV-I 0 W/m 20,6 km/h (4 Bft)
30.12.2013 20:46 4,7 C 2,8 C 86 % 1018,8 hPa 0,0 l/m 0 min 0 min 0,0 UV-I 0 W/m 15,4 km/h (3 Bft)
30.12.2013 20:48 4,7 C 2,8 C 86 % 1018,8 hPa 0,0 l/m 0 min 0 min 0,0 UV-I 0 W/m 25,7 km/h (4 Bft)
30.12.2013 20:50 4,8 C 2,8 C 86 % 1018,8 hPa 0,0 l/m 0 min 0 min 0,0 UV-I 0 W/m 15,4 km/h (3 Bft)
30.12.2013 20:52 4,8 C 2,8 C 85 % 1018,8 hPa 0,0 l/m 0 min 0 min 0,0 UV-I 0 W/m 25,7 km/h (4 Bft)
30.12.2013 20:54 4,8 C 2,8 C 85 % 1018,7 hPa 0,0 l/m 0 min 0 min 0,0 UV-I 0 W/m 20,6 km/h (4 Bft)
30.12.2013 20:56 4,8 C 2,8 C 85 % 1018,7 hPa 0,0 l/m 0 min 0 min 0,0 UV-I 0 W/m 15,4 km/h (3 Bft)
30.12.2013 20:58 4,8 C 2,8 C 85 % 1018,7 hPa 0,0 l/m 0 min 0 min 0,0 UV-I 0 W/m 20,6 km/h (4 Bft)
30.12.2013 21:00 4,8 C 2,8 C 85 % 1018,8 hPa 0,0 l/m 0 min 0 min 0,0 UV-I 0 W/m 12,9 km/h (3 Bft)
30.12.2013 21:02 4,8 C 2,8 C 85 % 1018,9 hPa 0,0 l/m 0 min 0 min 0,0 UV-I 0 W/m 20,6 km/h (4 Bft)
30.12.2013 21:04 4,8 C 2,8 C 85 % 1018,9 hPa 0,0 l/m 0 min 0 min 0,0 UV-I 0 W/m 20,6 km/h (4 Bft)
30.12.2013 21:06 4,8 C 2,8 C 85 % 1018,9 hPa 0,0 l/m 0 min 0 min 0,0 UV-I 0 W/m 15,4 km/h (3 Bft)
30.12.2013 21:08 4,9 C 2,8 C 85 % 1018,9 hPa 0,0 l/m 0 min 0 min 0,0 UV-I 0 W/m 15,4 km/h (3 Bft)
30.12.2013 21:10 4,9 C 2,8 C 85 % 1019,0 hPa 0,0 l/m 0 min 0 min 0,0 UV-I 0 W/m 18,0 km/h (3 Bft)
30.12.2013 21:12 4,9 C 2,8 C 85 % 1018,9 hPa 0,0 l/m 0 min 0 min 0,0 UV-I 0 W/m 10,3 km/h (2 Bft)
30.12.2013 21:14 4,9 C 2,8 C 85 % 1019,0 hPa 0,0 l/m 0 min 0 min 0,0 UV-I 0 W/m 10,3 km/h (2 Bft)
30.12.2013 21:16 4,9 C 2,8 C 85 % 1019,0 hPa 0,0 l/m 0 min 0 min 0,0 UV-I 0 W/m 15,4 km/h (3 Bft)
30.12.2013 21:18 4,9 C 2,8 C 85 % 1019,0 hPa 0,0 l/m 0 min 0 min 0,0 UV-I 0 W/m 10,3 km/h (2 Bft)
30.12.2013 21:20 4,9 C 2,8 C 85 % 1019,0 hPa 0,0 l/m 0 min 0 min 0,0 UV-I 0 W/m 15,4 km/h (3 Bft)
30.12.2013 21:22 4,9 C 3,3 C 85 % 1019,0 hPa 0,0 l/m 0 min 0 min 0,0 UV-I 0 W/m 12,9 km/h (3 Bft)
30.12.2013 21:24 4,9 C 3,3 C 85 % 1019,1 hPa 0,0 l/m 0 min 0 min 0,0 UV-I 0 W/m 15,4 km/h (3 Bft)
30.12.2013 21:26 4,9 C 3,3 C 85 % 1019,0 hPa 0,0 l/m 0 min 0 min 0,0 UV-I 0 W/m 12,9 km/h (3 Bft)
30.12.2013 21:28 4,9 C 3,3 C 85 % 1019,1 hPa 0,0 l/m 0 min 0 min 0,0 UV-I 0 W/m 15,4 km/h (3 Bft)
30.12.2013 21:30 4,9 C 3,3 C 85 % 1019,0 hPa 0,0 l/m 0 min 0 min 0,0 UV-I 0 W/m 12,9 km/h (3 Bft)
30.12.2013 21:32 4,9 C 3,3 C 85 % 1019,1 hPa 0,0 l/m 0 min 0 min 0,0 UV-I 0 W/m 15,4 km/h (3 Bft)
30.12.2013 21:34 4,9 C 3,3 C 85 % 1019,0 hPa 0,0 l/m 0 min 0 min 0,0 UV-I 0 W/m 12,9 km/h (3 Bft)
30.12.2013 21:36 4,9 C 3,3 C 85 % 1019,1 hPa 0,0 l/m 0 min 0 min 0,0 UV-I 0 W/m 10,3 km/h (2 Bft)
30.12.2013 21:38 4,9 C 3,3 C 85 % 1019,1 hPa 0,0 l/m 0 min 0 min 0,0 UV-I 0 W/m 15,4 km/h (3 Bft)
30.12.2013 21:40 4,9 C 3,3 C 84 % 1019,2 hPa 0,0 l/m 0 min 0 min 0,0 UV-I 0 W/m 23,2 km/h (4 Bft)
30.12.2013 21:42 4,9 C 3,3 C 85 % 1019,1 hPa 0,0 l/m 0 min 0 min 0,0 UV-I 0 W/m 18,0 km/h (3 Bft)
30.12.2013 21:44 4,9 C 3,3 C 84 % 1019,1 hPa 0,0 l/m 0 min 0 min 0,0 UV-I 0 W/m 12,9 km/h (3 Bft)
30.12.2013 21:46 4,9 C 3,3 C 85 % 1019,1 hPa 0,0 l/m 0 min 0 min 0,0 UV-I 0 W/m 10,3 km/h (2 Bft)
30.12.2013 21:48 4,9 C 3,3 C 85 % 1019,1 hPa 0,0 l/m 0 min 0 min 0,0 UV-I 0 W/m 10,3 km/h (2 Bft)
30.12.2013 21:50 4,9 C 3,3 C 85 % 1019,1 hPa 0,0 l/m 0 min 0 min 0,0 UV-I 0 W/m 5,1 km/h (1 Bft)
30.12.2013 21:52 4,9 C 3,3 C 85 % 1019,1 hPa 0,0 l/m 0 min 0 min 0,0 UV-I 0 W/m 15,4 km/h (3 Bft)
30.12.2013 21:54 4,9 C 3,3 C 85 % 1019,2 hPa 0,0 l/m 0 min 0 min 0,0 UV-I 0 W/m 15,4 km/h (3 Bft)
30.12.2013 21:56 4,9 C 3,3 C 85 % 1019,2 hPa 0,0 l/m 0 min 0 min 0,0 UV-I 0 W/m 12,9 km/h (3 Bft)
30.12.2013 21:58 4,9 C 3,3 C 84 % 1019,2 hPa 0,0 l/m 0 min 0 min 0,0 UV-I 0 W/m 10,3 km/h (2 Bft)
30.12.2013 22:00 5,0 C 3,3 C 84 % 1019,2 hPa 0,0 l/m 0 min 0 min 0,0 UV-I 0 W/m 7,7 km/h (2 Bft)
30.12.2013 22:02 5,0 C 3,3 C 84 % 1019,1 hPa 0,0 l/m 0 min 0 min 0,0 UV-I 0 W/m 7,7 km/h (2 Bft)
30.12.2013 22:04 5,0 C 3,3 C 85 % 1019,2 hPa 0,0 l/m 0 min 0 min 0,0 UV-I 0 W/m 10,3 km/h (2 Bft)
30.12.2013 22:06 5,0 C 3,3 C 85 % 1019,2 hPa 0,0 l/m 0 min 0 min 0,0 UV-I 0 W/m 10,3 km/h (2 Bft)
30.12.2013 22:08 5,0 C 3,3 C 84 % 1019,2 hPa 0,0 l/m 0 min 0 min 0,0 UV-I 0 W/m 18,0 km/h (3 Bft)
30.12.2013 22:10 5,0 C 3,3 C 84 % 1019,1 hPa 0,0 l/m 0 min 0 min 0,0 UV-I 0 W/m 18,0 km/h (3 Bft)
30.12.2013 22:12 5,0 C 3,3 C 84 % 1019,1 hPa 0,0 l/m 0 min 0 min 0,0 UV-I 0 W/m 12,9 km/h (3 Bft)
30.12.2013 22:14 5,0 C 3,3 C 84 % 1019,1 hPa 0,0 l/m 0 min 0 min 0,0 UV-I 0 W/m 12,9 km/h (3 Bft)
30.12.2013 22:16 5,0 C 3,3 C 84 % 1019,2 hPa 0,0 l/m 0 min 0 min 0,0 UV-I 0 W/m 12,9 km/h (3 Bft)
30.12.2013 22:18 5,1 C 3,3 C 84 % 1019,2 hPa 0,0 l/m 0 min 0 min 0,0 UV-I 0 W/m 12,9 km/h (3 Bft)
30.12.2013 22:20 5,1 C 3,3 C 84 % 1019,2 hPa 0,0 l/m 0 min 0 min 0,0 UV-I 0 W/m 15,4 km/h (3 Bft)
30.12.2013 22:22 5,1 C 3,3 C 84 % 1019,3 hPa 0,0 l/m 0 min 0 min 0,0 UV-I 0 W/m 10,3 km/h (2 Bft)
30.12.2013 22:24 5,1 C 3,3 C 84 % 1019,3 hPa 0,0 l/m 0 min 0 min 0,0 UV-I 0 W/m 12,9 km/h (3 Bft)
30.12.2013 22:26 5,1 C 3,3 C 84 % 1019,2 hPa 0,0 l/m 0 min 0 min 0,0 UV-I 0 W/m 12,9 km/h (3 Bft)
30.12.2013 22:28 5,1 C 3,3 C 84 % 1019,3 hPa 0,0 l/m 0 min 0 min 0,0 UV-I 0 W/m 20,6 km/h (4 Bft)
30.12.2013 22:30 5,1 C 3,3 C 84 % 1019,3 hPa 0,0 l/m 0 min 0 min 0,0 UV-I 0 W/m 18,0 km/h (3 Bft)
30.12.2013 22:32 5,1 C 3,3 C 84 % 1019,3 hPa 0,0 l/m 0 min 0 min 0,0 UV-I 0 W/m 15,4 km/h (3 Bft)
30.12.2013 22:34 5,1 C 3,3 C 84 % 1019,3 hPa 0,0 l/m 0 min 0 min 0,0 UV-I 0 W/m 10,3 km/h (2 Bft)
30.12.2013 22:36 5,1 C 3,3 C 84 % 1019,3 hPa 0,0 l/m 0 min 0 min 0,0 UV-I 0 W/m 10,3 km/h (2 Bft)
30.12.2013 22:38 5,1 C 3,3 C 84 % 1019,4 hPa 0,0 l/m 0 min 0 min 0,0 UV-I 0 W/m 10,3 km/h (2 Bft)
30.12.2013 22:40 5,1 C 3,3 C 84 % 1019,3 hPa 0,0 l/m 0 min 0 min 0,0 UV-I 0 W/m 18,0 km/h (3 Bft)
30.12.2013 22:42 5,1 C 3,3 C 84 % 1019,3 hPa 0,0 l/m 0 min 0 min 0,0 UV-I 0 W/m 15,4 km/h (3 Bft)
30.12.2013 22:44 5,1 C 3,3 C 84 % 1019,4 hPa 0,0 l/m 0 min 0 min 0,0 UV-I 0 W/m 7,7 km/h (2 Bft)
30.12.2013 22:46 5,1 C 3,3 C 84 % 1019,4 hPa 0,0 l/m 0 min 0 min 0,0 UV-I 0 W/m 12,9 km/h (3 Bft)
30.12.2013 22:48 5,1 C 3,3 C 84 % 1019,4 hPa 0,0 l/m 0 min 0 min 0,0 UV-I 0 W/m 5,1 km/h (1 Bft)
30.12.2013 22:50 5,1 C 3,3 C 84 % 1019,4 hPa 0,0 l/m 0 min 0 min 0,0 UV-I 0 W/m 2,6 km/h (1 Bft)
30.12.2013 22:52 5,1 C 3,3 C 84 % 1019,4 hPa 0,0 l/m 0 min 0 min 0,0 UV-I 0 W/m 0,0 km/h (0 Bft)
30.12.2013 22:54 5,1 C 3,3 C 84 % 1019,4 hPa 0,0 l/m 0 min 0 min 0,0 UV-I 0 W/m 12,9 km/h (3 Bft)
30.12.2013 22:56 5,1 C 3,3 C 84 % 1019,4 hPa 0,0 l/m 0 min 0 min 0,0 UV-I 0 W/m 7,7 km/h (2 Bft)
30.12.2013 22:58 5,1 C 3,3 C 84 % 1019,4 hPa 0,0 l/m 0 min 0 min 0,0 UV-I 0 W/m 10,3 km/h (2 Bft)
30.12.2013 23:00 5,1 C 3,3 C 84 % 1019,4 hPa 0,0 l/m 0 min 0 min 0,0 UV-I 0 W/m 7,7 km/h (2 Bft)
30.12.2013 23:02 5,1 C 3,3 C 84 % 1019,4 hPa 0,0 l/m 0 min 0 min 0,0 UV-I 0 W/m 10,3 km/h (2 Bft)
30.12.2013 23:04 5,1 C 3,3 C 84 % 1019,4 hPa 0,0 l/m 0 min 0 min 0,0 UV-I 0 W/m 10,3 km/h (2 Bft)
30.12.2013 23:06 5,2 C 3,3 C 84 % 1019,3 hPa 0,0 l/m 0 min 0 min 0,0 UV-I 0 W/m 15,4 km/h (3 Bft)
30.12.2013 23:08 5,2 C 3,3 C 84 % 1019,4 hPa 0,0 l/m 0 min 0 min 0,0 UV-I 0 W/m 12,9 km/h (3 Bft)
30.12.2013 23:10 5,2 C 3,3 C 84 % 1019,3 hPa 0,0 l/m 0 min 0 min 0,0 UV-I 0 W/m 10,3 km/h (2 Bft)
30.12.2013 23:12 5,2 C 3,3 C 84 % 1019,4 hPa 0,0 l/m 0 min 0 min 0,0 UV-I 0 W/m 0,0 km/h (0 Bft)
30.12.2013 23:14 5,2 C 3,3 C 84 % 1019,4 hPa 0,0 l/m 0 min 0 min 0,0 UV-I 0 W/m 2,6 km/h (1 Bft)
30.12.2013 23:16 5,2 C 3,3 C 84 % 1019,4 hPa 0,0 l/m 0 min 0 min 0,0 UV-I 0 W/m 10,3 km/h (2 Bft)
30.12.2013 23:18 5,2 C 3,3 C 84 % 1019,4 hPa 0,0 l/m 0 min 0 min 0,0 UV-I 0 W/m 12,9 km/h (3 Bft)
30.12.2013 23:20 5,2 C 3,3 C 84 % 1019,4 hPa 0,0 l/m 0 min 0 min 0,0 UV-I 0 W/m 10,3 km/h (2 Bft)
30.12.2013 23:22 5,2 C 3,3 C 84 % 1019,3 hPa 0,0 l/m 0 min 0 min 0,0 UV-I 0 W/m 12,9 km/h (3 Bft)
30.12.2013 23:24 5,2 C 3,3 C 84 % 1019,4 hPa 0,0 l/m 0 min 0 min 0,0 UV-I 0 W/m 10,3 km/h (2 Bft)
30.12.2013 23:26 5,2 C 3,3 C 84 % 1019,3 hPa 0,0 l/m 0 min 0 min 0,0 UV-I 0 W/m 2,6 km/h (1 Bft)
30.12.2013 23:28 5,2 C 3,3 C 84 % 1019,3 hPa 0,0 l/m 0 min 0 min 0,0 UV-I 0 W/m 5,1 km/h (1 Bft)
30.12.2013 23:30 5,2 C 3,3 C 84 % 1019,3 hPa 0,0 l/m 0 min 0 min 0,0 UV-I 0 W/m 15,4 km/h (3 Bft)
30.12.2013 23:32 5,2 C 3,3 C 84 % 1019,2 hPa 0,0 l/m 0 min 0 min 0,0 UV-I 0 W/m 7,7 km/h (2 Bft)
30.12.2013 23:34 5,2 C 3,3 C 84 % 1019,2 hPa 0,0 l/m 0 min 0 min 0,0 UV-I 0 W/m 5,1 km/h (1 Bft)
30.12.2013 23:36 5,2 C 3,3 C 84 % 1019,2 hPa 0,0 l/m 0 min 0 min 0,0 UV-I 0 W/m 7,7 km/h (2 Bft)
30.12.2013 23:38 5,2 C 3,3 C 84 % 1019,1 hPa 0,0 l/m 0 min 0 min 0,0 UV-I 0 W/m 5,1 km/h (1 Bft)
30.12.2013 23:40 5,2 C 3,3 C 84 % 1019,1 hPa 0,0 l/m 0 min 0 min 0,0 UV-I 0 W/m 7,7 km/h (2 Bft)
30.12.2013 23:42 5,2 C 3,3 C 84 % 1019,1 hPa 0,0 l/m 0 min 0 min 0,0 UV-I 0 W/m 15,4 km/h (3 Bft)
30.12.2013 23:44 5,2 C 3,3 C 85 % 1019,0 hPa 0,0 l/m 0 min 0 min 0,0 UV-I 0 W/m 7,7 km/h (2 Bft)
30.12.2013 23:46 5,2 C 3,3 C 85 % 1019,0 hPa 0,0 l/m 0 min 0 min 0,0 UV-I 0 W/m 10,3 km/h (2 Bft)
30.12.2013 23:48 5,2 C 3,3 C 85 % 1019,1 hPa 0,0 l/m 0 min 0 min 0,0 UV-I 0 W/m 7,7 km/h (2 Bft)
30.12.2013 23:50 5,2 C 3,3 C 85 % 1019,2 hPa 0,0 l/m 0 min 0 min 0,0 UV-I 0 W/m 2,6 km/h (1 Bft)
30.12.2013 23:52 5,2 C 3,3 C 85 % 1019,2 hPa 0,0 l/m 0 min 0 min 0,0 UV-I 0 W/m 10,3 km/h (2 Bft)
30.12.2013 23:54 5,2 C 3,3 C 85 % 1019,2 hPa 0,0 l/m 0 min 0 min 0,0 UV-I 0 W/m 10,3 km/h (2 Bft)
30.12.2013 23:56 5,2 C 3,3 C 85 % 1019,1 hPa 0,0 l/m 0 min 0 min 0,0 UV-I 0 W/m 2,6 km/h (1 Bft)
30.12.2013 23:58 5,2 C 3,3 C 85 % 1019,2 hPa 0,0 l/m 0 min 0 min 0,0 UV-I 0 W/m 10,3 km/h (2 Bft)
_ Min-Zeit 08:02 02:00 17:16 17:20 - - - - - 00:00
Minimum _ 0,5 C -0,6 C 78 % 1018,6 hPa - - - - - 0,0 km/h (0 Bft)
_ Max-Zeit 14:18 14:02 05:54 02:14 05:50 09:44 19:10 00:00 12:14 13:58
Maximum _ 6,7 C 5,6 C 97 % 1024,4 hPa 0,2 l/m 2 min 2 min 0,0 UV-I 250 W/m 41,2 km/h
O-SO (6 Bft)
Durchschnitt _ 3,7 C 2,2 C 88 % 1021,6 hPa #0,6 l/m #4:08 h #1:06 h 0,0 UV-I 108 W/m 14,0 km/h (3 Bft)
© 2013 W. Hausmann